| time (UTC) | temp F | wind direction | speed MPH | gust MPH | rain 1hr in | rain 24hr in | rain mn in | humidity % | barometer mb |
| 20260506001700 | 74 | 32 | 0.0 | 7.0 | 0.00 | 0.00 | 0.00 | 50 | 1005.9 |
| 20260506001558 | 74 | 32 | 0.0 | 7.0 | 0.00 | 0.00 | 0.00 | 49 | 1005.8 |
| 20260506001459 | 74 | 32 | 1.0 | 7.0 | 0.00 | 0.00 | 0.00 | 49 | 1005.9 |
| 20260506001358 | 74 | 32 | 1.0 | 7.0 | 0.00 | 0.00 | 0.00 | 48 | 1005.8 |
| 20260506001257 | 74 | 146 | 0.0 | 7.0 | 0.00 | 0.00 | 0.00 | 49 | 1005.8 |
| 20260506001057 | 75 | 146 | 0.0 | 7.0 | 0.00 | 0.00 | 0.00 | 48 | 1005.7 |
| 20260506001001 | 75 | 146 | 2.0 | 7.0 | 0.00 | 0.00 | 0.00 | 49 | 1005.8 |
| 20260506000858 | 75 | 146 | 1.0 | 7.0 | 0.00 | 0.00 | 0.00 | 48 | 1005.7 |
| 20260506000757 | 75 | 76 | 3.0 | 3.0 | 0.00 | 0.00 | 0.00 | 50 | 1005.8 |
| 20260506000658 | 75 | 165 | 2.0 | 4.0 | 0.00 | 0.00 | 0.00 | 48 | 1005.8 |
| 20260506000358 | 75 | 223 | 0.0 | 3.0 | 0.00 | 0.00 | 0.00 | 47 | 1005.7 |
| 20260506000257 | 75 | 223 | 2.0 | 3.0 | 0.00 | 0.00 | 0.00 | 49 | 1005.8 |
| 20260506000158 | 75 | 288 | 0.0 | 3.0 | 0.00 | 0.00 | 0.00 | 47 | 1005.8 |
| 20260506000057 | 75 | 288 | 0.0 | 3.0 | 0.00 | 0.00 | 0.00 | 48 | 1005.8 |
| 20260506000005 | 75 | 288 | 0.0 | 3.0 | 0.00 | 0.00 | 0.00 | 48 | 1005.8 |
| 20260505235859 | 76 | 288 | 0.0 | 3.0 | 0.00 | 0.00 | 0.00 | 48 | 1005.7 |
| 20260505235757 | 76 | 288 | 0.0 | 3.0 | 0.00 | 0.00 | 0.00 | 48 | 1005.8 |
| 20260505235558 | 76 | 288 | 0.0 | 3.0 | 0.00 | 0.00 | 0.00 | 48 | 1005.8 |
| 20260505235357 | 76 | 288 | 3.0 | 3.0 | 0.00 | 0.00 | 0.00 | 47 | 1005.8 |
| 20260505235058 | 76 | 281 | 0.0 | 5.0 | 0.00 | 0.00 | 0.00 | 48 | 1005.9 |
| 20260505235000 | 76 | 186 | 2.0 | 5.0 | 0.00 | 0.00 | 0.00 | 47 | 1005.9 |
| 20260505234758 | 76 | 37 | 2.0 | 5.0 | 0.00 | 0.00 | 0.00 | 46 | 1005.9 |
| 20260505234658 | 76 | 37 | 2.0 | 5.0 | 0.00 | 0.00 | 0.00 | 47 | 1005.8 |
| 20260505234558 | 76 | 37 | 0.0 | 5.0 | 0.00 | 0.00 | 0.00 | 47 | 1005.8 |
| 20260505234500 | 76 | 37 | 1.0 | 5.0 | 0.00 | 0.00 | 0.00 | 47 | 1005.9 |
| 20260505234357 | 76 | 37 | 1.0 | 5.0 | 0.00 | 0.00 | 0.00 | 47 | 1005.8 |
| 20260505234200 | 76 | 143 | 2.0 | 6.0 | 0.00 | 0.00 | 0.00 | 46 | 1005.7 |
| 20260505234059 | 76 | 275 | 0.0 | 6.0 | 0.00 | 0.00 | 0.00 | 47 | 1005.8 |
| 20260505234000 | 76 | 275 | 1.0 | 6.0 | 0.00 | 0.00 | 0.00 | 47 | 1005.7 |
| 20260505233858 | 77 | 275 | 1.0 | 6.0 | 0.00 | 0.00 | 0.00 | 46 | 1005.7 |
| 20260505233758 | 77 | 275 | 1.0 | 6.0 | 0.00 | 0.00 | 0.00 | 47 | 1005.7 |
| 20260505233659 | 77 | 275 | 2.0 | 6.0 | 0.00 | 0.00 | 0.00 | 47 | 1005.7 |
| 20260505233557 | 77 | 275 | 1.0 | 6.0 | 0.00 | 0.00 | 0.00 | 48 | 1005.6 |
| 20260505233458 | 77 | 300 | 3.0 | 5.0 | 0.00 | 0.00 | 0.00 | 46 | 1005.7 |
| 20260505233257 | 77 | 197 | 1.0 | 5.0 | 0.00 | 0.00 | 0.00 | 46 | 1005.6 |
| 20260505233158 | 77 | 197 | 2.0 | 8.0 | 0.00 | 0.00 | 0.00 | 46 | 1005.6 |
| 20260505233058 | 77 | 216 | 2.0 | 8.0 | 0.00 | 0.00 | 0.00 | 46 | 1005.6 |
| 20260505232959 | 77 | 205 | 1.0 | 8.0 | 0.00 | 0.00 | 0.00 | 46 | 1005.6 |
| 20260505232859 | 77 | 205 | 1.0 | 8.0 | 0.00 | 0.00 | 0.00 | 46 | 1005.7 |
| 20260505232758 | 77 | 219 | 3.0 | 8.0 | 0.00 | 0.00 | 0.00 | 46 | 1005.6 |
| 20260505232658 | 77 | 269 | 2.0 | 8.0 | 0.00 | 0.00 | 0.00 | 46 | 1005.6 |
| 20260505232558 | 77 | 272 | 3.0 | 8.0 | 0.00 | 0.00 | 0.00 | 46 | 1005.7 |
| 20260505232459 | 77 | 257 | 2.0 | 8.0 | 0.00 | 0.00 | 0.00 | 47 | 1005.6 |
| 20260505232359 | 77 | 257 | 0.0 | 8.0 | 0.00 | 0.00 | 0.00 | 47 | 1005.6 |
| 20260505232259 | 77 | 257 | 2.0 | 8.0 | 0.00 | 0.00 | 0.00 | 45 | 1005.6 |
| 20260505232157 | 77 | 284 | 3.0 | 8.0 | 0.00 | 0.00 | 0.00 | 45 | 1005.6 |
| 20260505232000 | 77 | 202 | 3.0 | 8.0 | 0.00 | 0.00 | 0.00 | 47 | 1005.7 |
| 20260505231859 | 77 | 273 | 2.0 | 8.0 | 0.00 | 0.00 | 0.00 | 46 | 1005.6 |
| 20260505231759 | 77 | 280 | 2.0 | 8.0 | 0.00 | 0.00 | 0.00 | 46 | 1005.6 |
| 20260505231657 | 77 | 360 | 0.0 | 8.0 | 0.00 | 0.00 | 0.00 | 46 | 1005.6 |
| 20260505231358 | 77 | 240 | 2.0 | 8.0 | 0.00 | 0.00 | 0.00 | 46 | 1005.6 |
| 20260505231158 | 78 | 253 | 5.0 | 7.0 | 0.00 | 0.00 | 0.00 | 46 | 1005.6 |
| 20260505230859 | 78 | 202 | 1.0 | 7.0 | 0.00 | 0.00 | 0.00 | 47 | 1005.6 |
| 20260505230758 | 78 | 186 | 3.0 | 7.0 | 0.00 | 0.00 | 0.00 | 46 | 1005.6 |
| 20260505230500 | 78 | 338 | 2.0 | 7.0 | 0.00 | 0.00 | 0.00 | 45 | 1005.5 |
| 20260505230358 | 78 | 119 | 3.0 | 7.0 | 0.00 | 0.00 | 0.00 | 46 | 1005.6 |
| 20260505230258 | 78 | 304 | 1.0 | 8.0 | 0.00 | 0.00 | 0.00 | 46 | 1005.5 |
| 20260505230158 | 78 | 304 | 0.0 | 10.0 | 0.00 | 0.00 | 0.00 | 46 | 1005.5 |
| 20260505230057 | 78 | 302 | 4.0 | 17.0 | 0.00 | 0.00 | 0.00 | 46 | 1005.6 |
| 20260505225858 | 78 | 229 | 2.0 | 17.0 | 0.00 | 0.00 | 0.00 | 47 | 1005.4 |
| 20260505225758 | 78 | 186 | 2.0 | 17.0 | 0.00 | 0.00 | 0.00 | 47 | 1005.4 |
| 20260505225658 | 78 | 186 | 3.0 | 17.0 | 0.00 | 0.00 | 0.00 | 46 | 1005.4 |
| 20260505225558 | 78 | 222 | 2.0 | 17.0 | 0.00 | 0.00 | 0.00 | 46 | 1005.3 |
| 20260505225359 | 78 | 229 | 2.0 | 17.0 | 0.00 | 0.00 | 0.00 | 46 | 1005.4 |
| 20260505225258 | 78 | 126 | 3.0 | 17.0 | 0.00 | 0.00 | 0.00 | 46 | 1005.4 |
| 20260505225158 | 78 | 234 | 5.0 | 17.0 | 0.00 | 0.00 | 0.00 | 46 | 1005.3 |
| 20260505225058 | 78 | 277 | 6.0 | 10.0 | 0.00 | 0.00 | 0.00 | 47 | 1005.3 |
| 20260505225000 | 78 | 224 | 5.0 | 7.0 | 0.00 | 0.00 | 0.00 | 48 | 1005.4 |
| 20260505224859 | 78 | 236 | 1.0 | 7.0 | 0.00 | 0.00 | 0.00 | 47 | 1005.3 |
| 20260505224757 | 78 | 236 | 1.0 | 7.0 | 0.00 | 0.00 | 0.00 | 47 | 1005.4 |
| 20260505224658 | 78 | 236 | 3.0 | 7.0 | 0.00 | 0.00 | 0.00 | 47 | 1005.4 |
| 20260505224358 | 78 | 213 | 4.0 | 6.0 | 0.00 | 0.00 | 0.00 | 47 | 1005.3 |
| 20260505224257 | 78 | 182 | 3.0 | 6.0 | 0.00 | 0.00 | 0.00 | 47 | 1005.3 |
| 20260505224157 | 78 | 132 | 1.0 | 6.0 | 0.00 | 0.00 | 0.00 | 48 | 1005.2 |
| 20260505224058 | 78 | 219 | 2.0 | 6.0 | 0.00 | 0.00 | 0.00 | 47 | 1005.2 |
| 20260505224000 | 79 | 240 | 0.0 | 6.0 | 0.00 | 0.00 | 0.00 | 47 | 1005.2 |
| 20260505223859 | 79 | 294 | 2.0 | 5.0 | 0.00 | 0.00 | 0.00 | 49 | 1005.2 |
| 20260505223758 | 79 | 322 | 4.0 | 5.0 | 0.00 | 0.00 | 0.00 | 48 | 1005.3 |
| 20260505223657 | 79 | 253 | 0.0 | 5.0 | 0.00 | 0.00 | 0.00 | 48 | 1005.3 |
| 20260505223559 | 79 | 253 | 2.0 | 6.0 | 0.00 | 0.00 | 0.00 | 48 | 1005.2 |
| 20260505223358 | 79 | 249 | 2.0 | 6.0 | 0.00 | 0.00 | 0.00 | 49 | 1005.3 |
| 20260505223259 | 79 | 312 | 1.0 | 6.0 | 0.00 | 0.00 | 0.00 | 47 | 1005.3 |
| 20260505223157 | 79 | 312 | 2.0 | 6.0 | 0.00 | 0.00 | 0.00 | 47 | 1005.2 |
| 20260505223059 | 79 | 316 | 3.0 | 6.0 | 0.00 | 0.00 | 0.00 | 47 | 1005.3 |
| 20260505222857 | 79 | 273 | 1.0 | 6.0 | 0.00 | 0.00 | 0.00 | 46 | 1005.3 |
| 20260505222757 | 79 | 267 | 4.0 | 6.0 | 0.00 | 0.00 | 0.00 | 47 | 1005.3 |
| 20260505222700 | 79 | 167 | 6.0 | 6.0 | 0.00 | 0.00 | 0.00 | 47 | 1005.3 |
| 20260505222559 | 79 | 260 | 2.0 | 17.0 | 0.00 | 0.00 | 0.00 | 46 | 1005.3 |
| 20260505222259 | 79 | 184 | 2.0 | 20.0 | 0.00 | 0.00 | 0.00 | 47 | 1005.3 |
| 20260505222158 | 79 | 184 | 3.0 | 20.0 | 0.00 | 0.00 | 0.00 | 46 | 1005.3 |
| 20260505222059 | 79 | 161 | 2.0 | 20.0 | 0.00 | 0.00 | 0.00 | 46 | 1005.2 |
| 20260505222000 | 79 | 360 | 2.0 | 20.0 | 0.00 | 0.00 | 0.00 | 46 | 1005.4 |
| 20260505221858 | 79 | 242 | 3.0 | 20.0 | 0.00 | 0.00 | 0.00 | 46 | 1005.4 |
| 20260505221758 | 79 | 285 | 3.0 | 20.0 | 0.00 | 0.00 | 0.00 | 46 | 1005.4 |
| 20260505221658 | 79 | 236 | 1.0 | 20.0 | 0.00 | 0.00 | 0.00 | 45 | 1005.5 |
| 20260505221557 | 79 | 213 | 3.0 | 10.0 | 0.00 | 0.00 | 0.00 | 46 | 1005.3 |
| 20260505221500 | 79 | 167 | 11.0 | 11.0 | 0.00 | 0.00 | 0.00 | 46 | 1005.4 |
| 20260505221357 | 80 | 190 | 4.0 | 10.0 | 0.00 | 0.00 | 0.00 | 48 | 1005.4 |
| 20260505221259 | 80 | 257 | 1.0 | 10.0 | 0.00 | 0.00 | 0.00 | 48 | 1005.4 |
| 20260505221159 | 80 | 236 | 3.0 | 10.0 | 0.00 | 0.00 | 0.00 | 47 | 1005.3 |
| 20260505221058 | 80 | 236 | 4.0 | 10.0 | 0.00 | 0.00 | 0.00 | 46 | 1005.4 |
| 20260505220959 | 80 | 143 | 2.0 | 10.0 | 0.00 | 0.00 | 0.00 | 46 | 1005.4 |
| 20260505220758 | 80 | 189 | 6.0 | 10.0 | 0.00 | 0.00 | 0.00 | 47 | 1005.3 |
| 20260505220658 | 80 | 212 | 2.0 | 10.0 | 0.00 | 0.00 | 0.00 | 47 | 1005.3 |
| 20260505220557 | 80 | 234 | 3.0 | 10.0 | 0.00 | 0.00 | 0.00 | 51 | 1005.3 |
| 20260505220459 | 80 | 225 | 2.0 | 10.0 | 0.00 | 0.00 | 0.00 | 47 | 1005.3 |
| 20260505220258 | 80 | 259 | 2.0 | 7.0 | 0.00 | 0.00 | 0.00 | 47 | 1005.3 |
| 20260505220200 | 80 | 276 | 4.0 | 14.0 | 0.00 | 0.00 | 0.00 | 48 | 1005.3 |
| 20260505220058 | 79 | 211 | 0.0 | 14.0 | 0.00 | 0.00 | 0.00 | 47 | 1005.3 |
| 20260505220005 | 79 | 208 | 3.0 | 14.0 | 0.00 | 0.00 | 0.00 | 49 | 1005.3 |
| 20260505215857 | 79 | 177 | 2.0 | 14.0 | 0.00 | 0.00 | 0.00 | 47 | 1005.4 |
| 20260505215658 | 79 | 177 | 3.0 | 14.0 | 0.00 | 0.00 | 0.00 | 46 | 1005.4 |
| 20260505215558 | 79 | 174 | 3.0 | 14.0 | 0.00 | 0.00 | 0.00 | 46 | 1005.3 |
| 20260505215500 | 79 | 278 | 6.0 | 14.0 | 0.00 | 0.00 | 0.00 | 46 | 1005.4 |
| 20260505215359 | 79 | 51 | 4.0 | 14.0 | 0.00 | 0.00 | 0.00 | 47 | 1005.4 |
| 20260505215258 | 79 | 165 | 12.0 | 14.0 | 0.00 | 0.00 | 0.00 | 47 | 1005.3 |
| 20260505215159 | 79 | 193 | 4.0 | 10.0 | 0.00 | 0.00 | 0.00 | 48 | 1005.4 |
| 20260505215057 | 79 | 285 | 4.0 | 10.0 | 0.00 | 0.00 | 0.00 | 48 | 1005.4 |
| 20260505215001 | 79 | 209 | 4.0 | 8.0 | 0.00 | 0.00 | 0.00 | 47 | 1005.4 |
| 20260505214758 | 79 | 122 | 3.0 | 9.0 | 0.00 | 0.00 | 0.00 | 47 | 1005.4 |
| 20260505214658 | 79 | 263 | 2.0 | 9.0 | 0.00 | 0.00 | 0.00 | 49 | 1005.4 |
| 20260505214558 | 79 | 144 | 1.0 | 9.0 | 0.00 | 0.00 | 0.00 | 48 | 1005.3 |
| 20260505214500 | 79 | 118 | 2.0 | 9.0 | 0.00 | 0.00 | 0.00 | 48 | 1005.3 |
| 20260505214359 | 80 | 121 | 2.0 | 9.0 | 0.00 | 0.00 | 0.00 | 50 | 1005.4 |
| 20260505214258 | 80 | 292 | 2.0 | 9.0 | 0.00 | 0.00 | 0.00 | 47 | 1005.4 |
| 20260505214058 | 80 | 238 | 1.0 | 9.0 | 0.00 | 0.00 | 0.00 | 47 | 1005.3 |
| 20260505213859 | 80 | 280 | 3.0 | 9.0 | 0.00 | 0.00 | 0.00 | 47 | 1005.4 |
| 20260505213759 | 80 | 161 | 8.0 | 15.0 | 0.00 | 0.00 | 0.00 | 47 | 1005.3 |
| 20260505213657 | 80 | 119 | 8.0 | 15.0 | 0.00 | 0.00 | 0.00 | 47 | 1005.4 |
| 20260505213557 | 80 | 258 | 3.0 | 15.0 | 0.00 | 0.00 | 0.00 | 48 | 1005.4 |
| 20260505213358 | 80 | 299 | 3.0 | 15.0 | 0.00 | 0.00 | 0.00 | 47 | 1005.4 |
| 20260505213258 | 80 | 219 | 2.0 | 15.0 | 0.00 | 0.00 | 0.00 | 48 | 1005.5 |
| 20260505213158 | 80 | 229 | 4.0 | 15.0 | 0.00 | 0.00 | 0.00 | 47 | 1005.4 |
| 20260505213058 | 80 | 212 | 4.0 | 15.0 | 0.00 | 0.00 | 0.00 | 48 | 1005.3 |
| 20260505213000 | 80 | 239 | 5.0 | 15.0 | 0.00 | 0.00 | 0.00 | 46 | 1005.2 |
| 20260505212858 | 80 | 214 | 7.0 | 16.0 | 0.00 | 0.00 | 0.00 | 47 | 1005.4 |
| 20260505212759 | 80 | 279 | 2.0 | 15.0 | 0.00 | 0.00 | 0.00 | 46 | 1005.2 |
| 20260505212700 | 80 | 180 | 3.0 | 15.0 | 0.00 | 0.00 | 0.00 | 46 | 1005.3 |
| 20260505212558 | 80 | 240 | 4.0 | 10.0 | 0.00 | 0.00 | 0.00 | 48 | 1005.3 |
| 20260505212501 | 80 | 210 | 2.0 | 10.0 | 0.00 | 0.00 | 0.00 | 49 | 1005.3 |
| 20260505212358 | 80 | 257 | 7.0 | 10.0 | 0.00 | 0.00 | 0.00 | 48 | 1005.3 |
| 20260505212259 | 80 | 312 | 5.0 | 10.0 | 0.00 | 0.00 | 0.00 | 49 | 1005.2 |
| 20260505212158 | 80 | 277 | 3.0 | 10.0 | 0.00 | 0.00 | 0.00 | 49 | 1005.3 |
| 20260505212058 | 80 | 189 | 6.0 | 10.0 | 0.00 | 0.00 | 0.00 | 48 | 1005.3 |
| 20260505212000 | 80 | 287 | 2.0 | 7.0 | 0.00 | 0.00 | 0.00 | 49 | 1005.2 |
| 20260505211759 | 80 | 271 | 0.0 | 11.0 | 0.00 | 0.00 | 0.00 | 48 | 1005.2 |
| 20260505211658 | 80 | 271 | 1.0 | 11.0 | 0.00 | 0.00 | 0.00 | 46 | 1005.2 |
| 20260505211557 | 80 | 246 | 3.0 | 11.0 | 0.00 | 0.00 | 0.00 | 47 | 1005.2 |
| 20260505211258 | 80 | 76 | 3.0 | 11.0 | 0.00 | 0.00 | 0.00 | 48 | 1005.1 |
| 20260505211058 | 80 | 175 | 2.0 | 11.0 | 0.00 | 0.00 | 0.00 | 47 | 1005.1 |
| 20260505211000 | 80 | 171 | 2.0 | 11.0 | 0.00 | 0.00 | 0.00 | 47 | 1005.2 |
| 20260505210858 | 80 | 321 | 5.0 | 11.0 | 0.00 | 0.00 | 0.00 | 46 | 1005.2 |
| 20260505210758 | 81 | 219 | 7.0 | 8.0 | 0.00 | 0.00 | 0.00 | 46 | 1005.1 |
| 20260505210659 | 81 | 258 | 7.0 | 8.0 | 0.00 | 0.00 | 0.00 | 45 | 1005.2 |
| 20260505210500 | 81 | 264 | 2.0 | 8.0 | 0.00 | 0.00 | 0.00 | 48 | 1005.1 |
| 20260505210358 | 81 | 190 | 3.0 | 8.0 | 0.00 | 0.00 | 0.00 | 46 | 1005.1 |
| 20260505210157 | 81 | 207 | 3.0 | 9.0 | 0.00 | 0.00 | 0.00 | 46 | 1005.1 |
| 20260505205959 | 81 | 175 | 2.0 | 9.0 | 0.00 | 0.00 | 0.00 | 49 | 1005.0 |
| 20260505205858 | 81 | 175 | 0.0 | 9.0 | 0.00 | 0.00 | 0.00 | 47 | 1005.1 |
| 20260505205759 | 81 | 175 | 3.0 | 14.0 | 0.00 | 0.00 | 0.00 | 47 | 1005.0 |
| 20260505205658 | 81 | 306 | 3.0 | 14.0 | 0.00 | 0.00 | 0.00 | 48 | 1005.0 |
| 20260505205559 | 80 | 229 | 3.0 | 14.0 | 0.00 | 0.00 | 0.00 | 46 | 1005.0 |
| 20260505205459 | 80 | 275 | 4.0 | 14.0 | 0.00 | 0.00 | 0.00 | 46 | 1005.1 |
| 20260505205358 | 80 | 250 | 4.0 | 14.0 | 0.00 | 0.00 | 0.00 | 46 | 1005.2 |
| 20260505205258 | 80 | 221 | 9.0 | 14.0 | 0.00 | 0.00 | 0.00 | 46 | 1005.2 |
| 20260505205159 | 80 | 163 | 2.0 | 14.0 | 0.00 | 0.00 | 0.00 | 47 | 1005.2 |
| 20260505205059 | 80 | 325 | 3.0 | 14.0 | 0.00 | 0.00 | 0.00 | 48 | 1005.1 |
| 20260505204858 | 80 | 171 | 6.0 | 14.0 | 0.00 | 0.00 | 0.00 | 46 | 1005.1 |
| 20260505204758 | 80 | 136 | 4.0 | 15.0 | 0.00 | 0.00 | 0.00 | 46 | 1005.2 |
| 20260505204558 | 81 | 272 | 6.0 | 15.0 | 0.00 | 0.00 | 0.00 | 47 | 1005.2 |
| 20260505204357 | 81 | 226 | 3.0 | 15.0 | 0.00 | 0.00 | 0.00 | 47 | 1005.2 |
| 20260505204258 | 81 | 263 | 3.0 | 15.0 | 0.00 | 0.00 | 0.00 | 47 | 1005.4 |
| 20260505204100 | 81 | 261 | 2.0 | 8.0 | 0.00 | 0.00 | 0.00 | 47 | 1005.2 |
| 20260505204000 | 81 | 200 | 6.0 | 8.0 | 0.00 | 0.00 | 0.00 | 47 | 1005.3 |
| 20260505203858 | 81 | 232 | 3.0 | 8.0 | 0.00 | 0.00 | 0.00 | 48 | 1005.2 |
| 20260505203757 | 81 | 232 | 4.0 | 8.0 | 0.00 | 0.00 | 0.00 | 46 | 1005.2 |
| 20260505203657 | 81 | 298 | 3.0 | 8.0 | 0.00 | 0.00 | 0.00 | 47 | 1005.3 |
| 20260505203558 | 81 | 205 | 6.0 | 8.0 | 0.00 | 0.00 | 0.00 | 48 | 1005.3 |
| 20260505203357 | 81 | 194 | 4.0 | 8.0 | 0.00 | 0.00 | 0.00 | 47 | 1005.3 |
| 20260505203259 | 81 | 250 | 5.0 | 9.0 | 0.00 | 0.00 | 0.00 | 46 | 1005.3 |
| 20260505203158 | 81 | 270 | 3.0 | 8.0 | 0.00 | 0.00 | 0.00 | 46 | 1005.3 |
| 20260505203059 | 81 | 226 | 5.0 | 10.0 | 0.00 | 0.00 | 0.00 | 47 | 1005.2 |
| 20260505203001 | 81 | 281 | 6.0 | 10.0 | 0.00 | 0.00 | 0.00 | 48 | 1005.2 |
| 20260505202858 | 81 | 138 | 3.0 | 12.0 | 0.00 | 0.00 | 0.00 | 48 | 1005.4 |
| 20260505202758 | 81 | 267 | 3.0 | 12.0 | 0.00 | 0.00 | 0.00 | 48 | 1005.2 |
| 20260505202558 | 81 | 277 | 6.0 | 12.0 | 0.00 | 0.00 | 0.00 | 52 | 1005.3 |
| 20260505202459 | 80 | 200 | 0.0 | 12.0 | 0.00 | 0.00 | 0.00 | 48 | 1005.3 |
| 20260505202257 | 80 | 240 | 2.0 | 12.0 | 0.00 | 0.00 | 0.00 | 49 | 1005.3 |
| 20260505202158 | 80 | 136 | 5.0 | 13.0 | 0.00 | 0.00 | 0.00 | 48 | 1005.3 |
| 20260505202058 | 80 | 125 | 4.0 | 13.0 | 0.00 | 0.00 | 0.00 | 51 | 1005.3 |
| 20260505201959 | 80 | 222 | 3.0 | 13.0 | 0.00 | 0.00 | 0.00 | 47 | 1005.3 |
| 20260505201858 | 80 | 141 | 3.0 | 13.0 | 0.00 | 0.00 | 0.00 | 48 | 1005.3 |
| 20260505201758 | 80 | 244 | 4.0 | 13.0 | 0.00 | 0.00 | 0.00 | 48 | 1005.4 |
| 20260505201658 | 80 | 124 | 3.0 | 13.0 | 0.00 | 0.00 | 0.00 | 48 | 1005.3 |
| 20260505201558 | 80 | 197 | 2.0 | 13.0 | 0.00 | 0.00 | 0.00 | 48 | 1005.3 |
| 20260505201500 | 80 | 324 | 3.0 | 13.0 | 0.00 | 0.00 | 0.00 | 48 | 1005.4 |
| 20260505201358 | 80 | 234 | 5.0 | 13.0 | 0.00 | 0.00 | 0.00 | 49 | 1005.3 |
| 20260505201259 | 80 | 225 | 3.0 | 15.0 | 0.00 | 0.00 | 0.00 | 49 | 1005.3 |
| 20260505201058 | 80 | 250 | 3.0 | 11.0 | 0.00 | 0.00 | 0.00 | 50 | 1005.2 |
| 20260505200958 | 80 | 178 | 2.0 | 11.0 | 0.00 | 0.00 | 0.00 | 48 | 1005.4 |
| 20260505200858 | 80 | 231 | 5.0 | 11.0 | 0.00 | 0.00 | 0.00 | 48 | 1005.3 |
| 20260505200759 | 80 | 234 | 9.0 | 11.0 | 0.00 | 0.00 | 0.00 | 48 | 1005.4 |
| 20260505200658 | 80 | 200 | 7.0 | 11.0 | 0.00 | 0.00 | 0.00 | 49 | 1005.4 |
| 20260505200558 | 80 | 275 | 4.0 | 8.0 | 0.00 | 0.00 | 0.00 | 47 | 1005.5 |
| 20260505200459 | 80 | 104 | 1.0 | 8.0 | 0.00 | 0.00 | 0.00 | 49 | 1005.4 |
| 20260505200357 | 80 | 286 | 2.0 | 11.0 | 0.00 | 0.00 | 0.00 | 50 | 1005.4 |
| 20260505200258 | 80 | 209 | 2.0 | 11.0 | 0.00 | 0.00 | 0.00 | 49 | 1005.5 |
| 20260505200158 | 80 | 239 | 3.0 | 11.0 | 0.00 | 0.00 | 0.00 | 49 | 1005.4 |
| 20260505200057 | 80 | 237 | 1.0 | 11.0 | 0.00 | 0.00 | 0.00 | 47 | 1005.4 |
| 20260505200005 | 80 | 131 | 3.0 | 11.0 | 0.00 | 0.00 | 0.00 | 47 | 1005.5 |
| 20260505195859 | 80 | 174 | 2.0 | 11.0 | 0.00 | 0.00 | 0.00 | 48 | 1005.4 |
| 20260505195657 | 80 | 234 | 2.0 | 11.0 | 0.00 | 0.00 | 0.00 | 50 | 1005.5 |
| 20260505195459 | 80 | 159 | 12.0 | 12.0 | 0.00 | 0.00 | 0.00 | 47 | 1005.5 |
| 20260505195400 | 80 | 185 | 3.0 | 11.0 | 0.00 | 0.00 | 0.00 | 46 | 1005.5 |
| 20260505195258 | 80 | 197 | 2.0 | 11.0 | 0.00 | 0.00 | 0.00 | 48 | 1005.6 |
| 20260505195157 | 80 | 85 | 1.0 | 11.0 | 0.00 | 0.00 | 0.00 | 48 | 1005.6 |
| 20260505195058 | 81 | 336 | 5.0 | 11.0 | 0.00 | 0.00 | 0.00 | 47 | 1005.6 |
| 20260505194959 | 81 | 154 | 8.0 | 11.0 | 0.00 | 0.00 | 0.00 | 48 | 1005.5 |
| 20260505194858 | 81 | 134 | 8.0 | 11.0 | 0.00 | 0.00 | 0.00 | 50 | 1005.5 |
| 20260505194759 | 81 | 312 | 2.0 | 11.0 | 0.00 | 0.00 | 0.00 | 48 | 1005.6 |
| 20260505194658 | 81 | 224 | 3.0 | 11.0 | 0.00 | 0.00 | 0.00 | 49 | 1005.6 |
| 20260505194558 | 81 | 223 | 3.0 | 11.0 | 0.00 | 0.00 | 0.00 | 47 | 1005.7 |
| 20260505194459 | 81 | 213 | 4.0 | 11.0 | 0.00 | 0.00 | 0.00 | 49 | 1005.7 |
| 20260505194258 | 81 | 254 | 4.0 | 11.0 | 0.00 | 0.00 | 0.00 | 47 | 1005.6 |
| 20260505194159 | 81 | 136 | 4.0 | 11.0 | 0.00 | 0.00 | 0.00 | 48 | 1005.6 |
| 20260505194057 | 81 | 322 | 2.0 | 11.0 | 0.00 | 0.00 | 0.00 | 47 | 1005.6 |
| 20260505193858 | 81 | 273 | 4.0 | 11.0 | 0.00 | 0.00 | 0.00 | 51 | 1005.6 |
| 20260505193758 | 81 | 205 | 7.0 | 12.0 | 0.00 | 0.00 | 0.00 | 47 | 1005.5 |
| 20260505193658 | 81 | 328 | 3.0 | 11.0 | 0.00 | 0.00 | 0.00 | 48 | 1005.5 |
| 20260505193500 | 81 | 208 | 3.0 | 15.0 | 0.00 | 0.00 | 0.00 | 52 | 1005.5 |
| 20260505193258 | 81 | 162 | 4.0 | 15.0 | 0.00 | 0.00 | 0.00 | 48 | 1005.6 |
| 20260505193158 | 81 | 160 | 5.0 | 15.0 | 0.00 | 0.00 | 0.00 | 48 | 1005.5 |
| 20260505193102 | 80 | 140 | 7.0 | 15.0 | 0.00 | 0.00 | 0.00 | 47 | 1005.6 |
| 20260505192959 | 80 | 102 | 2.0 | 15.0 | 0.00 | 0.00 | 0.00 | 49 | 1005.7 |
| 20260505192857 | 80 | 173 | 6.0 | 15.0 | 0.00 | 0.00 | 0.00 | 48 | 1005.7 |
| 20260505192758 | 81 | 276 | 3.0 | 15.0 | 0.00 | 0.00 | 0.00 | 47 | 1005.7 |
| 20260505192658 | 81 | 226 | 3.0 | 15.0 | 0.00 | 0.00 | 0.00 | 47 | 1005.6 |
| 20260505192458 | 81 | 165 | 13.0 | 13.0 | 0.00 | 0.00 | 0.00 | 48 | 1005.7 |
| 20260505192357 | 81 | 135 | 4.0 | 15.0 | 0.00 | 0.00 | 0.00 | 47 | 1005.7 |
| 20260505192259 | 81 | 213 | 4.0 | 15.0 | 0.00 | 0.00 | 0.00 | 48 | 1005.6 |
| 20260505192157 | 81 | 204 | 2.0 | 15.0 | 0.00 | 0.00 | 0.00 | 50 | 1005.6 |
| 20260505191858 | 81 | 167 | 4.0 | 15.0 | 0.00 | 0.00 | 0.00 | 48 | 1005.7 |
| 20260505191758 | 81 | 227 | 2.0 | 15.0 | 0.00 | 0.00 | 0.00 | 49 | 1005.7 |
| 20260505191558 | 80 | 145 | 3.0 | 15.0 | 0.00 | 0.00 | 0.00 | 47 | 1005.7 |
| 20260505191500 | 80 | 160 | 14.0 | 15.0 | 0.00 | 0.00 | 0.00 | 49 | 1005.8 |
| 20260505191359 | 80 | 190 | 2.0 | 11.0 | 0.00 | 0.00 | 0.00 | 47 | 1005.8 |
| 20260505191258 | 80 | 282 | 3.0 | 13.0 | 0.00 | 0.00 | 0.00 | 47 | 1005.9 |
| 20260505191157 | 81 | 256 | 3.0 | 8.0 | 0.00 | 0.00 | 0.00 | 49 | 1005.8 |
| 20260505191000 | 81 | 261 | 3.0 | 6.0 | 0.00 | 0.00 | 0.00 | 47 | 1005.8 |
| 20260505190857 | 81 | 292 | 5.0 | 9.0 | 0.00 | 0.00 | 0.00 | 50 | 1006.0 |
| 20260505190759 | 81 | 275 | 3.0 | 9.0 | 0.00 | 0.00 | 0.00 | 50 | 1005.9 |
| 20260505190657 | 81 | 169 | 4.0 | 9.0 | 0.00 | 0.00 | 0.00 | 50 | 1005.9 |
| 20260505190459 | 81 | 254 | 2.0 | 10.0 | 0.00 | 0.00 | 0.00 | 47 | 1005.9 |
| 20260505190257 | 81 | 275 | 1.0 | 10.0 | 0.00 | 0.00 | 0.00 | 49 | 1005.9 |
| 20260505190158 | 81 | 247 | 1.0 | 10.0 | 0.00 | 0.00 | 0.00 | 46 | 1005.9 |
| 20260505190057 | 81 | 292 | 4.0 | 10.0 | 0.00 | 0.00 | 0.00 | 46 | 1005.9 |
| 20260505185959 | 81 | 146 | 8.0 | 10.0 | 0.00 | 0.00 | 0.00 | 47 | 1006.0 |
| 20260505185858 | 81 | 232 | 4.0 | 10.0 | 0.00 | 0.00 | 0.00 | 50 | 1005.9 |
| 20260505185758 | 81 | 163 | 4.0 | 10.0 | 0.00 | 0.00 | 0.00 | 48 | 1005.9 |
| 20260505185658 | 81 | 267 | 10.0 | 10.0 | 0.00 | 0.00 | 0.00 | 48 | 1005.9 |
| 20260505185559 | 81 | 221 | 6.0 | 10.0 | 0.00 | 0.00 | 0.00 | 49 | 1005.9 |
| 20260505185500 | 81 | 271 | 3.0 | 8.0 | 0.00 | 0.00 | 0.00 | 48 | 1005.9 |
| 20260505185257 | 81 | 265 | 3.0 | 8.0 | 0.00 | 0.00 | 0.00 | 48 | 1006.1 |
| 20260505185158 | 81 | 206 | 4.0 | 8.0 | 0.00 | 0.00 | 0.00 | 50 | 1006.0 |
| 20260505185058 | 81 | 259 | 2.0 | 8.0 | 0.00 | 0.00 | 0.00 | 49 | 1006.1 |
| 20260505184959 | 81 | 269 | 3.0 | 12.0 | 0.00 | 0.00 | 0.00 | 49 | 1006.1 |
| 20260505184759 | 80 | 215 | 2.0 | 12.0 | 0.00 | 0.00 | 0.00 | 52 | 1006.2 |
| 20260505184559 | 80 | 85 | 1.0 | 12.0 | 0.00 | 0.00 | 0.00 | 49 | 1006.3 |
| 20260505184459 | 80 | 258 | 2.0 | 12.0 | 0.00 | 0.00 | 0.00 | 52 | 1006.2 |
| 20260505184359 | 80 | 200 | 2.0 | 12.0 | 0.00 | 0.00 | 0.00 | 49 | 1006.2 |
| 20260505184258 | 80 | 231 | 2.0 | 12.0 | 0.00 | 0.00 | 0.00 | 49 | 1006.4 |
| 20260505184158 | 80 | 219 | 2.0 | 12.0 | 0.00 | 0.00 | 0.00 | 48 | 1006.3 |
| 20260505184058 | 80 | 165 | 6.0 | 12.0 | 0.00 | 0.00 | 0.00 | 49 | 1006.3 |
| 20260505183959 | 80 | 34 | 2.0 | 12.0 | 0.00 | 0.00 | 0.00 | 49 | 1006.3 |
| 20260505183858 | 80 | 270 | 2.0 | 12.0 | 0.00 | 0.00 | 0.00 | 47 | 1006.4 |
| 20260505183758 | 80 | 330 | 4.0 | 12.0 | 0.00 | 0.00 | 0.00 | 48 | 1006.5 |
| 20260505183658 | 80 | 316 | 4.0 | 12.0 | 0.00 | 0.00 | 0.00 | 49 | 1006.4 |
| 20260505183558 | 80 | 147 | 10.0 | 12.0 | 0.00 | 0.00 | 0.00 | 48 | 1006.4 |
| 20260505183459 | 80 | 273 | 10.0 | 10.0 | 0.00 | 0.00 | 0.00 | 47 | 1006.4 |
| 20260505183357 | 80 | 138 | 7.0 | 9.0 | 0.00 | 0.00 | 0.00 | 50 | 1006.4 |
| 20260505183258 | 80 | 72 | 1.0 | 9.0 | 0.00 | 0.00 | 0.00 | 48 | 1006.3 |
| 20260505183158 | 80 | 88 | 1.0 | 9.0 | 0.00 | 0.00 | 0.00 | 47 | 1006.4 |
| 20260505182959 | 80 | 208 | 7.0 | 8.0 | 0.00 | 0.00 | 0.00 | 49 | 1006.4 |
| 20260505182857 | 80 | 261 | 3.0 | 8.0 | 0.00 | 0.00 | 0.00 | 49 | 1006.4 |
| 20260505182759 | 80 | 162 | 4.0 | 14.0 | 0.00 | 0.00 | 0.00 | 47 | 1006.4 |
| 20260505182658 | 80 | 218 | 8.0 | 17.0 | 0.00 | 0.00 | 0.00 | 47 | 1006.5 |
| 20260505182500 | 81 | 209 | 1.0 | 17.0 | 0.00 | 0.00 | 0.00 | 47 | 1006.6 |
| 20260505182359 | 81 | 265 | 6.0 | 17.0 | 0.00 | 0.00 | 0.00 | 51 | 1006.7 |
| 20260505182258 | 81 | 235 | 2.0 | 17.0 | 0.00 | 0.00 | 0.00 | 48 | 1006.6 |
| 20260505182158 | 81 | 244 | 7.0 | 17.0 | 0.00 | 0.00 | 0.00 | 48 | 1006.6 |
| 20260505182059 | 81 | 215 | 7.0 | 17.0 | 0.00 | 0.00 | 0.00 | 47 | 1006.5 |
| 20260505182001 | 81 | 158 | 2.0 | 17.0 | 0.00 | 0.00 | 0.00 | 47 | 1006.5 |
| 20260505181758 | 81 | 174 | 19.0 | 19.0 | 0.00 | 0.00 | 0.00 | 49 | 1006.5 |
| 20260505181658 | 81 | 252 | 3.0 | 12.0 | 0.00 | 0.00 | 0.00 | 49 | 1006.6 |
| 20260505181557 | 81 | 183 | 2.0 | 12.0 | 0.00 | 0.00 | 0.00 | 47 | 1006.5 |
| 20260505181358 | 81 | 280 | 8.0 | 11.0 | 0.00 | 0.00 | 0.00 | 47 | 1006.5 |
| 20260505181258 | 81 | 236 | 6.0 | 11.0 | 0.00 | 0.00 | 0.00 | 50 | 1006.4 |
| 20260505181159 | 81 | 109 | 2.0 | 11.0 | 0.00 | 0.00 | 0.00 | 48 | 1006.5 |
| 20260505181000 | 81 | 272 | 4.0 | 9.0 | 0.00 | 0.00 | 0.00 | 47 | 1006.5 |
| 20260505180859 | 81 | 223 | 5.0 | 9.0 | 0.00 | 0.00 | 0.00 | 47 | 1006.6 |
| 20260505180758 | 81 | 312 | 2.0 | 9.0 | 0.00 | 0.00 | 0.00 | 52 | 1006.6 |
| 20260505180658 | 81 | 247 | 2.0 | 9.0 | 0.00 | 0.00 | 0.00 | 49 | 1006.6 |
| 20260505180558 | 81 | 207 | 2.0 | 9.0 | 0.00 | 0.00 | 0.00 | 50 | 1006.6 |
| 20260505180500 | 81 | 248 | 1.0 | 9.0 | 0.00 | 0.00 | 0.00 | 49 | 1006.6 |
| 20260505180358 | 81 | 263 | 2.0 | 9.0 | 0.00 | 0.00 | 0.00 | 48 | 1006.7 |
| 20260505180258 | 81 | 279 | 4.0 | 9.0 | 0.00 | 0.00 | 0.00 | 50 | 1006.7 |
| 20260505180159 | 81 | 259 | 9.0 | 9.0 | 0.00 | 0.00 | 0.00 | 49 | 1006.7 |
| 20260505175758 | 81 | 138 | 3.0 | 8.0 | 0.00 | 0.00 | 0.00 | 50 | 1006.8 |
| 20260505175700 | 81 | 255 | 3.0 | 8.0 | 0.00 | 0.00 | 0.00 | 50 | 1006.8 |
| 20260505175357 | 81 | 111 | 2.0 | 8.0 | 0.00 | 0.00 | 0.00 | 48 | 1006.8 |
| 20260505175258 | 81 | 161 | 2.0 | 8.0 | 0.00 | 0.00 | 0.00 | 50 | 1006.8 |
| 20260505175159 | 81 | 140 | 5.0 | 8.0 | 0.00 | 0.00 | 0.00 | 55 | 1006.8 |
| 20260505175058 | 81 | 306 | 1.0 | 8.0 | 0.00 | 0.00 | 0.00 | 55 | 1006.9 |
| 20260505175000 | 81 | 205 | 3.0 | 8.0 | 0.00 | 0.00 | 0.00 | 49 | 1006.9 |
| 20260505174858 | 81 | 271 | 4.0 | 8.0 | 0.00 | 0.00 | 0.00 | 49 | 1006.9 |
| 20260505174758 | 80 | 267 | 3.0 | 8.0 | 0.00 | 0.00 | 0.00 | 51 | 1006.9 |
| 20260505174658 | 80 | 267 | 1.0 | 8.0 | 0.00 | 0.00 | 0.00 | 49 | 1006.9 |
| 20260505174557 | 80 | 267 | 7.0 | 9.0 | 0.00 | 0.00 | 0.00 | 50 | 1006.8 |
| 20260505174500 | 80 | 226 | 4.0 | 9.0 | 0.00 | 0.00 | 0.00 | 52 | 1006.8 |
| 20260505174359 | 80 | 81 | 2.0 | 9.0 | 0.00 | 0.00 | 0.00 | 49 | 1006.7 |
| 20260505174257 | 80 | 148 | 5.0 | 9.0 | 0.00 | 0.00 | 0.00 | 50 | 1006.8 |
| 20260505174158 | 80 | 250 | 3.0 | 9.0 | 0.00 | 0.00 | 0.00 | 50 | 1006.9 |
| 20260505174100 | 80 | 230 | 7.0 | 9.0 | 0.00 | 0.00 | 0.00 | 52 | 1006.8 |
| 20260505173959 | 80 | 167 | 3.0 | 9.0 | 0.00 | 0.00 | 0.00 | 53 | 1006.8 |
| 20260505173758 | 79 | 188 | 1.0 | 9.0 | 0.00 | 0.00 | 0.00 | 52 | 1006.8 |
| 20260505173700 | 79 | 188 | 2.0 | 9.0 | 0.00 | 0.00 | 0.00 | 51 | 1006.8 |
| 20260505173557 | 79 | 286 | 1.0 | 9.0 | 0.00 | 0.00 | 0.00 | 50 | 1006.8 |
| 20260505173500 | 79 | 182 | 2.0 | 9.0 | 0.00 | 0.00 | 0.00 | 50 | 1006.8 |
| 20260505173358 | 79 | 140 | 1.0 | 9.0 | 0.00 | 0.00 | 0.00 | 48 | 1006.9 |
| 20260505173258 | 80 | 124 | 7.0 | 9.0 | 0.00 | 0.00 | 0.00 | 48 | 1006.9 |
| 20260505173159 | 80 | 135 | 7.0 | 8.0 | 0.00 | 0.00 | 0.00 | 53 | 1007.0 |
| 20260505173059 | 80 | 159 | 1.0 | 8.0 | 0.00 | 0.00 | 0.00 | 50 | 1007.0 |
| 20260505172959 | 80 | 160 | 2.0 | 8.0 | 0.00 | 0.00 | 0.00 | 48 | 1007.0 |
| 20260505172859 | 80 | 140 | 5.0 | 9.0 | 0.00 | 0.00 | 0.00 | 48 | 1007.0 |
| 20260505172758 | 80 | 192 | 2.0 | 9.0 | 0.00 | 0.00 | 0.00 | 49 | 1007.0 |
| 20260505172659 | 80 | 197 | 5.0 | 9.0 | 0.00 | 0.00 | 0.00 | 49 | 1007.0 |
| 20260505172557 | 80 | 202 | 0.0 | 9.0 | 0.00 | 0.00 | 0.00 | 50 | 1007.0 |
| 20260505172358 | 80 | 201 | 1.0 | 9.0 | 0.00 | 0.00 | 0.00 | 50 | 1007.0 |
| 20260505172158 | 80 | 284 | 2.0 | 9.0 | 0.00 | 0.00 | 0.00 | 50 | 1006.9 |
| 20260505172057 | 80 | 284 | 4.0 | 9.0 | 0.00 | 0.00 | 0.00 | 49 | 1006.9 |
| 20260505171858 | 80 | 347 | 4.0 | 9.0 | 0.00 | 0.00 | 0.00 | 49 | 1007.0 |
| 20260505171758 | 80 | 260 | 2.0 | 13.0 | 0.00 | 0.00 | 0.00 | 49 | 1007.0 |
| 20260505171659 | 80 | 273 | 3.0 | 13.0 | 0.00 | 0.00 | 0.00 | 48 | 1007.0 |
| 20260505171558 | 80 | 242 | 1.0 | 13.0 | 0.00 | 0.00 | 0.00 | 48 | 1007.0 |
| 20260505171258 | 80 | 309 | 5.0 | 13.0 | 0.00 | 0.00 | 0.00 | 49 | 1007.1 |
| 20260505171159 | 80 | 282 | 2.0 | 13.0 | 0.00 | 0.00 | 0.00 | 47 | 1007.1 |
| 20260505171058 | 80 | 274 | 8.0 | 13.0 | 0.00 | 0.00 | 0.00 | 49 | 1007.1 |
| 20260505170959 | 80 | 44 | 4.0 | 13.0 | 0.00 | 0.00 | 0.00 | 50 | 1007.1 |
| 20260505170858 | 80 | 261 | 9.0 | 13.0 | 0.00 | 0.00 | 0.00 | 48 | 1007.1 |
| 20260505170757 | 80 | 252 | 4.0 | 10.0 | 0.00 | 0.00 | 0.00 | 51 | 1007.1 |
| 20260505170657 | 80 | 259 | 4.0 | 10.0 | 0.00 | 0.00 | 0.00 | 48 | 1007.1 |
| 20260505170459 | 80 | 261 | 2.0 | 10.0 | 0.00 | 0.00 | 0.00 | 48 | 1007.2 |
| 20260505170358 | 80 | 273 | 3.0 | 10.0 | 0.00 | 0.00 | 0.00 | 49 | 1007.2 |
| 20260505170257 | 80 | 288 | 4.0 | 10.0 | 0.00 | 0.00 | 0.00 | 50 | 1007.2 |
| 20260505170158 | 80 | 236 | 3.0 | 10.0 | 0.00 | 0.00 | 0.00 | 48 | 1007.2 |
| 20260505170059 | 80 | 302 | 4.0 | 11.0 | 0.00 | 0.00 | 0.00 | 53 | 1007.2 |
| 20260505165959 | 80 | 263 | 3.0 | 11.0 | 0.00 | 0.00 | 0.00 | 49 | 1007.1 |
| 20260505165857 | 80 | 248 | 3.0 | 11.0 | 0.00 | 0.00 | 0.00 | 48 | 1007.2 |
| 20260505165759 | 80 | 268 | 6.0 | 11.0 | 0.00 | 0.00 | 0.00 | 48 | 1007.3 |
| 20260505165658 | 80 | 258 | 2.0 | 11.0 | 0.00 | 0.00 | 0.00 | 51 | 1007.3 |
| 20260505165459 | 79 | 242 | 3.0 | 11.0 | 0.00 | 0.00 | 0.00 | 51 | 1007.3 |
| 20260505165259 | 79 | 254 | 3.0 | 11.0 | 0.00 | 0.00 | 0.00 | 53 | 1007.3 |
| 20260505165157 | 79 | 252 | 4.0 | 11.0 | 0.00 | 0.00 | 0.00 | 53 | 1007.3 |
| 20260505165058 | 79 | 265 | 2.0 | 11.0 | 0.00 | 0.00 | 0.00 | 50 | 1007.3 |
| 20260505165000 | 79 | 288 | 5.0 | 11.0 | 0.00 | 0.00 | 0.00 | 51 | 1007.4 |
| 20260505164858 | 79 | 230 | 2.0 | 11.0 | 0.00 | 0.00 | 0.00 | 52 | 1007.6 |
| 20260505164758 | 79 | 222 | 3.0 | 11.0 | 0.00 | 0.00 | 0.00 | 52 | 1007.4 |
| 20260505164659 | 79 | 261 | 3.0 | 11.0 | 0.00 | 0.00 | 0.00 | 49 | 1007.4 |
| 20260505164558 | 79 | 309 | 7.0 | 11.0 | 0.00 | 0.00 | 0.00 | 52 | 1007.6 |
| 20260505164358 | 79 | 247 | 3.0 | 11.0 | 0.00 | 0.00 | 0.00 | 52 | 1007.6 |
| 20260505164257 | 79 | 225 | 2.0 | 11.0 | 0.00 | 0.00 | 0.00 | 50 | 1007.6 |
| 20260505164159 | 78 | 262 | 10.0 | 11.0 | 0.00 | 0.00 | 0.00 | 50 | 1007.6 |
| 20260505164058 | 78 | 254 | 2.0 | 9.0 | 0.00 | 0.00 | 0.00 | 53 | 1007.7 |
| 20260505163959 | 78 | 260 | 6.0 | 9.0 | 0.00 | 0.00 | 0.00 | 53 | 1007.8 |
| 20260505163900 | 78 | 250 | 3.0 | 9.0 | 0.00 | 0.00 | 0.00 | 53 | 1007.8 |
| 20260505163659 | 78 | 257 | 3.0 | 13.0 | 0.00 | 0.00 | 0.00 | 52 | 1007.8 |
| 20260505163558 | 78 | 286 | 6.0 | 13.0 | 0.00 | 0.00 | 0.00 | 52 | 1007.9 |
| 20260505163459 | 78 | 248 | 4.0 | 13.0 | 0.00 | 0.00 | 0.00 | 50 | 1008.0 |
| 20260505163358 | 78 | 269 | 7.0 | 13.0 | 0.00 | 0.00 | 0.00 | 52 | 1008.0 |
| 20260505163258 | 78 | 266 | 3.0 | 13.0 | 0.00 | 0.00 | 0.00 | 50 | 1007.9 |
| 20260505163200 | 78 | 267 | 3.0 | 13.0 | 0.00 | 0.00 | 0.00 | 51 | 1007.9 |
| 20260505163058 | 78 | 253 | 2.0 | 13.0 | 0.00 | 0.00 | 0.00 | 51 | 1007.9 |
| 20260505162959 | 78 | 242 | 4.0 | 13.0 | 0.00 | 0.00 | 0.00 | 52 | 1008.0 |
| 20260505162859 | 78 | 304 | 3.0 | 13.0 | 0.00 | 0.00 | 0.00 | 50 | 1007.9 |
| 20260505162659 | 79 | 261 | 4.0 | 9.0 | 0.00 | 0.00 | 0.00 | 50 | 1007.9 |
| 20260505162559 | 79 | 237 | 4.0 | 9.0 | 0.00 | 0.00 | 0.00 | 51 | 1008.0 |
| 20260505162459 | 79 | 235 | 4.0 | 9.0 | 0.00 | 0.00 | 0.00 | 53 | 1007.9 |
| 20260505162357 | 79 | 205 | 6.0 | 9.0 | 0.00 | 0.00 | 0.00 | 53 | 1007.9 |
| 20260505162258 | 79 | 281 | 6.0 | 9.0 | 0.00 | 0.00 | 0.00 | 53 | 1008.0 |
| 20260505162158 | 78 | 253 | 5.0 | 9.0 | 0.00 | 0.00 | 0.00 | 51 | 1008.0 |
| 20260505162057 | 79 | 243 | 5.0 | 9.0 | 0.00 | 0.00 | 0.00 | 51 | 1007.9 |
| 20260505161958 | 79 | 262 | 3.0 | 7.0 | 0.00 | 0.00 | 0.00 | 50 | 1007.9 |
| 20260505161758 | 79 | 220 | 3.0 | 7.0 | 0.00 | 0.00 | 0.00 | 52 | 1008.0 |
| 20260505161657 | 79 | 312 | 5.0 | 7.0 | 0.00 | 0.00 | 0.00 | 54 | 1008.0 |
| 20260505161558 | 79 | 230 | 6.0 | 7.0 | 0.00 | 0.00 | 0.00 | 51 | 1007.9 |
| 20260505161358 | 79 | 219 | 4.0 | 10.0 | 0.00 | 0.00 | 0.00 | 52 | 1007.9 |
| 20260505161258 | 79 | 266 | 7.0 | 10.0 | 0.00 | 0.00 | 0.00 | 52 | 1007.9 |
| 20260505161159 | 78 | 209 | 3.0 | 10.0 | 0.00 | 0.00 | 0.00 | 52 | 1007.9 |
| 20260505161057 | 78 | 216 | 3.0 | 10.0 | 0.00 | 0.00 | 0.00 | 52 | 1007.9 |
| 20260505160959 | 78 | 214 | 3.0 | 10.0 | 0.00 | 0.00 | 0.00 | 53 | 1007.9 |
| 20260505160859 | 78 | 226 | 4.0 | 10.0 | 0.00 | 0.00 | 0.00 | 52 | 1007.9 |
| 20260505160758 | 78 | 235 | 3.0 | 10.0 | 0.00 | 0.00 | 0.00 | 54 | 1007.9 |
| 20260505160558 | 78 | 268 | 8.0 | 10.0 | 0.00 | 0.00 | 0.00 | 51 | 1008.0 |
| 20260505160500 | 79 | 259 | 6.0 | 9.0 | 0.00 | 0.00 | 0.00 | 52 | 1008.0 |
| 20260505160158 | 78 | 221 | 1.0 | 9.0 | 0.00 | 0.00 | 0.00 | 53 | 1008.0 |
| 20260505153357 | 77 | 189 | 3.0 | 6.0 | 0.00 | 0.00 | 0.00 | 54 | 1007.8 |
| 20260505153258 | 77 | 248 | 3.0 | 6.0 | 0.00 | 0.00 | 0.00 | 57 | 1008.0 |
| 20260505153158 | 77 | 218 | 1.0 | 7.0 | 0.00 | 0.00 | 0.00 | 57 | 1008.0 |
| 20260505153057 | 77 | 214 | 4.0 | 8.0 | 0.00 | 0.00 | 0.00 | 56 | 1008.0 |
| 20260505152959 | 77 | 290 | 3.0 | 8.0 | 0.00 | 0.00 | 0.00 | 57 | 1008.0 |
| 20260505152857 | 77 | 217 | 3.0 | 8.0 | 0.00 | 0.00 | 0.00 | 55 | 1008.0 |
| 20260505152657 | 77 | 207 | 3.0 | 8.0 | 0.00 | 0.00 | 0.00 | 58 | 1008.1 |
| 20260505152558 | 77 | 242 | 4.0 | 8.0 | 0.00 | 0.00 | 0.00 | 55 | 1008.1 |
| 20260505152357 | 77 | 272 | 2.0 | 8.0 | 0.00 | 0.00 | 0.00 | 56 | 1008.1 |
| 20260505152257 | 77 | 263 | 3.0 | 8.0 | 0.00 | 0.00 | 0.00 | 54 | 1008.1 |
| 20260505152057 | 77 | 279 | 4.0 | 7.0 | 0.00 | 0.00 | 0.00 | 56 | 1008.1 |
| 20260505151959 | 77 | 252 | 2.0 | 7.0 | 0.00 | 0.00 | 0.00 | 57 | 1008.1 |
| 20260505151757 | 76 | 200 | 2.0 | 7.0 | 0.00 | 0.00 | 0.00 | 57 | 1008.1 |
| 20260505151659 | 76 | 200 | 3.0 | 7.0 | 0.00 | 0.00 | 0.00 | 57 | 1008.1 |
| 20260505151558 | 76 | 246 | 2.0 | 7.0 | 0.00 | 0.00 | 0.00 | 57 | 1008.0 |
| 20260505151457 | 76 | 296 | 2.0 | 8.0 | 0.00 | 0.00 | 0.00 | 57 | 1008.1 |
| 20260505151356 | 76 | 291 | 2.0 | 8.0 | 0.00 | 0.00 | 0.00 | 59 | 1008.1 |
| 20260505151258 | 76 | 214 | 3.0 | 8.0 | 0.00 | 0.00 | 0.00 | 59 | 1008.1 |
| 20260505151057 | 76 | 240 | 1.0 | 5.0 | 0.00 | 0.00 | 0.00 | 62 | 1008.1 |
| 20260505151000 | 76 | 240 | 2.0 | 5.0 | 0.00 | 0.00 | 0.00 | 58 | 1008.1 |
| 20260505150759 | 76 | 194 | 1.0 | 5.0 | 0.00 | 0.00 | 0.00 | 60 | 1008.2 |
| 20260505150658 | 76 | 187 | 3.0 | 5.0 | 0.00 | 0.00 | 0.00 | 60 | 1008.2 |
| 20260505150458 | 76 | 229 | 2.0 | 5.0 | 0.00 | 0.00 | 0.00 | 60 | 1008.1 |
| 20260505150359 | 75 | 192 | 3.0 | 5.0 | 0.00 | 0.00 | 0.00 | 62 | 1008.2 |
| 20260505150258 | 75 | 198 | 4.0 | 5.0 | 0.00 | 0.00 | 0.00 | 60 | 1008.1 |
| 20260505140558 | 71 | 285 | 3.0 | 5.0 | 0.00 | 0.00 | 0.00 | 67 | 1008.9 |
| 20260505140459 | 71 | 169 | 2.0 | 5.0 | 0.00 | 0.00 | 0.00 | 67 | 1008.9 |
| 20260505140357 | 70 | 215 | 0.0 | 5.0 | 0.00 | 0.00 | 0.00 | 69 | 1009.0 |
| 20260505140258 | 70 | 215 | 2.0 | 5.0 | 0.00 | 0.00 | 0.00 | 67 | 1008.9 |
| 20260505140158 | 70 | 263 | 1.0 | 5.0 | 0.00 | 0.00 | 0.00 | 66 | 1008.9 |
| 20260505130258 | 65 | 140 | 1.0 | 4.0 | 0.00 | 0.00 | 0.00 | 76 | 1009.6 |
| 20260505130200 | 65 | 199 | 0.0 | 3.0 | 0.00 | 0.00 | 0.00 | 75 | 1009.6 |
| 20260505124859 | 64 | 161 | 1.0 | 6.0 | 0.00 | 0.00 | 0.00 | 74 | 1009.6 |
| 20260505124757 | 64 | 161 | 1.0 | 6.0 | 0.00 | 0.00 | 0.00 | 75 | 1009.6 |
| 20260505124657 | 64 | 161 | 2.0 | 6.0 | 0.00 | 0.00 | 0.00 | 76 | 1009.6 |
| 20260505124558 | 64 | 161 | 2.0 | 6.0 | 0.00 | 0.00 | 0.00 | 76 | 1009.6 |
| 20260505124458 | 64 | 161 | 1.0 | 6.0 | 0.00 | 0.00 | 0.00 | 75 | 1009.5 |
| 20260505124357 | 64 | 167 | 6.0 | 6.0 | 0.00 | 0.00 | 0.00 | 75 | 1009.5 |
| 20260505124257 | 64 | 189 | 3.0 | 4.0 | 0.00 | 0.00 | 0.00 | 75 | 1009.5 |
| 20260505124158 | 64 | 196 | 2.0 | 4.0 | 0.00 | 0.00 | 0.00 | 76 | 1009.5 |
| 20260505124058 | 64 | 161 | 4.0 | 4.0 | 0.00 | 0.00 | 0.00 | 79 | 1009.6 |
| 20260505123958 | 64 | 171 | 1.0 | 2.0 | 0.00 | 0.00 | 0.00 | 79 | 1009.5 |
| 20260505123857 | 64 | 171 | 0.0 | 2.0 | 0.00 | 0.00 | 0.00 | 79 | 1009.5 |
| 20260505123759 | 64 | 171 | 1.0 | 2.0 | 0.00 | 0.00 | 0.00 | 79 | 1009.5 |
| 20260505123657 | 63 | 171 | 0.0 | 2.0 | 0.00 | 0.00 | 0.00 | 78 | 1009.5 |
| 20260505123558 | 63 | 171 | 1.0 | 2.0 | 0.00 | 0.00 | 0.00 | 79 | 1009.5 |
| 20260505123500 | 63 | 171 | 1.0 | 3.0 | 0.00 | 0.00 | 0.00 | 79 | 1009.5 |
| 20260505123157 | 62 | 171 | 0.0 | 4.0 | 0.00 | 0.00 | 0.00 | 81 | 1009.4 |
| 20260505123058 | 62 | 171 | 0.0 | 4.0 | 0.00 | 0.00 | 0.00 | 81 | 1009.4 |
| 20260505122959 | 62 | 171 | 1.0 | 4.0 | 0.00 | 0.00 | 0.00 | 82 | 1009.5 |
| 20260505122858 | 62 | 171 | 1.0 | 4.0 | 0.00 | 0.00 | 0.00 | 81 | 1009.5 |
| 20260505122657 | 62 | 171 | 0.0 | 4.0 | 0.00 | 0.00 | 0.00 | 80 | 1009.5 |
| 20260505122557 | 61 | 171 | 4.0 | 4.0 | 0.00 | 0.00 | 0.00 | 82 | 1009.5 |
| 20260505122458 | 61 | 279 | 1.0 | 4.0 | 0.00 | 0.00 | 0.00 | 82 | 1009.5 |
| 20260505122258 | 61 | 177 | 0.0 | 4.0 | 0.00 | 0.00 | 0.00 | 82 | 1009.4 |
| 20260505122157 | 61 | 177 | 1.0 | 4.0 | 0.00 | 0.00 | 0.00 | 82 | 1009.4 |
| 20260505122058 | 61 | 177 | 2.0 | 4.0 | 0.00 | 0.00 | 0.00 | 82 | 1009.6 |
| 20260505121959 | 60 | 177 | 3.0 | 4.0 | 0.00 | 0.00 | 0.00 | 84 | 1009.6 |
| 20260505121857 | 60 | 178 | 1.0 | 4.0 | 0.00 | 0.00 | 0.00 | 83 | 1009.5 |
| 20260505121658 | 59 | 209 | 2.0 | 4.0 | 0.00 | 0.00 | 0.00 | 85 | 1009.4 |
| 20260505121601 | 59 | 209 | 2.0 | 4.0 | 0.00 | 0.00 | 0.00 | 86 | 1009.4 |
| 20260505121357 | 59 | 143 | 3.0 | 3.0 | 0.00 | 0.00 | 0.00 | 87 | 1009.5 |
| 20260505121057 | 58 | 142 | 1.0 | 3.0 | 0.00 | 0.00 | 0.00 | 87 | 1009.4 |
| 20260505120958 | 58 | 142 | 1.0 | 3.0 | 0.00 | 0.00 | 0.00 | 88 | 1009.4 |
| 20260505120857 | 58 | 141 | 0.0 | 3.0 | 0.00 | 0.00 | 0.00 | 88 | 1009.4 |
| 20260505120658 | 58 | 141 | 1.0 | 3.0 | 0.00 | 0.00 | 0.00 | 88 | 1009.4 |
| 20260505120458 | 57 | 140 | 0.0 | 2.0 | 0.00 | 0.00 | 0.00 | 90 | 1009.4 |
| 20260505120357 | 57 | 140 | 0.0 | 1.0 | 0.00 | 0.00 | 0.00 | 90 | 1009.4 |
| 20260505120259 | 57 | 140 | 0.0 | 1.0 | 0.00 | 0.00 | 0.00 | 90 | 1009.4 |
| 20260505120157 | 57 | 140 | 0.0 | 1.0 | 0.00 | 0.00 | 0.00 | 91 | 1009.4 |
| 20260505120057 | 57 | 140 | 0.0 | 1.0 | 0.00 | 0.00 | 0.00 | 90 | 1009.4 |
| 20260505115959 | 56 | 140 | 0.0 | 1.0 | 0.00 | 0.00 | 0.00 | 91 | 1009.4 |
| 20260505115758 | 56 | 140 | 0.0 | 1.0 | 0.00 | 0.00 | 0.00 | 92 | 1009.4 |
| 20260505115657 | 56 | 140 | 0.0 | 1.0 | 0.00 | 0.00 | 0.00 | 91 | 1009.4 |
| 20260505115556 | 56 | 140 | 1.0 | 1.0 | 0.00 | 0.00 | 0.00 | 91 | 1009.3 |
| 20260505115458 | 56 | 140 | 0.0 | 0.0 | 0.00 | 0.00 | 0.00 | 91 | 1009.3 |
| 20260505115359 | 56 | 140 | 0.0 | 0.0 | 0.00 | 0.00 | 0.00 | 92 | 1009.3 |
| 20260505115156 | 56 | 140 | 0.0 | 0.0 | 0.00 | 0.00 | 0.00 | 92 | 1009.3 |
| 20260505114858 | 56 | 140 | 0.0 | 0.0 | 0.00 | 0.00 | 0.00 | 93 | 1009.3 |
| 20260505114757 | 56 | 140 | 0.0 | 0.0 | 0.00 | 0.00 | 0.00 | 93 | 1009.3 |
| 20260505114656 | 56 | 140 | 0.0 | 0.0 | 0.00 | 0.00 | 0.00 | 93 | 1009.3 |
| 20260505114557 | 55 | 140 | 0.0 | 1.0 | 0.00 | 0.00 | 0.00 | 93 | 1009.3 |
| 20260505114459 | 55 | 140 | 0.0 | 1.0 | 0.00 | 0.00 | 0.00 | 93 | 1009.3 |
| 20260505114357 | 55 | 140 | 0.0 | 1.0 | 0.00 | 0.00 | 0.00 | 93 | 1009.2 |
| 20260505114256 | 55 | 140 | 0.0 | 1.0 | 0.00 | 0.00 | 0.00 | 93 | 1009.2 |
| 20260505114157 | 55 | 140 | 0.0 | 1.0 | 0.00 | 0.00 | 0.00 | 93 | 1009.2 |
| 20260505113959 | 55 | 140 | 0.0 | 1.0 | 0.00 | 0.00 | 0.00 | 93 | 1009.1 |
| 20260505113657 | 55 | 140 | 0.0 | 1.0 | 0.00 | 0.00 | 0.00 | 94 | 1009.1 |
| 20260505113557 | 55 | 140 | 0.0 | 0.0 | 0.00 | 0.00 | 0.00 | 94 | 1009.1 |
| 20260505113459 | 55 | 140 | 0.0 | 0.0 | 0.00 | 0.00 | 0.00 | 94 | 1009.1 |
| 20260505113356 | 54 | 140 | 0.0 | 0.0 | 0.00 | 0.00 | 0.00 | 94 | 1009.0 |
| 20260505113258 | 54 | 140 | 0.0 | 1.0 | 0.00 | 0.00 | 0.00 | 94 | 1009.1 |
| 20260505113156 | 54 | 140 | 0.0 | 1.0 | 0.00 | 0.00 | 0.00 | 94 | 1009.1 |
| 20260505113058 | 54 | 140 | 0.0 | 1.0 | 0.00 | 0.00 | 0.00 | 94 | 1009.0 |
| 20260505112856 | 54 | 140 | 0.0 | 1.0 | 0.00 | 0.00 | 0.00 | 94 | 1009.0 |
| 20260505112757 | 54 | 140 | 0.0 | 1.0 | 0.00 | 0.00 | 0.00 | 94 | 1009.1 |
| 20260505112656 | 54 | 140 | 0.0 | 1.0 | 0.00 | 0.00 | 0.00 | 94 | 1009.1 |
| 20260505112556 | 54 | 140 | 0.0 | 1.0 | 0.00 | 0.00 | 0.00 | 94 | 1009.0 |
| 20260505112457 | 54 | 140 | 0.0 | 1.0 | 0.00 | 0.00 | 0.00 | 94 | 1009.0 |
| 20260505112257 | 53 | 140 | 0.0 | 1.0 | 0.00 | 0.00 | 0.00 | 94 | 1009.0 |
| 20260505112156 | 53 | 140 | 0.0 | 1.0 | 0.00 | 0.00 | 0.00 | 94 | 1009.0 |
| 20260505112057 | 53 | 140 | 0.0 | 1.0 | 0.00 | 0.00 | 0.00 | 94 | 1009.0 |
| 20260505111958 | 53 | 140 | 0.0 | 1.0 | 0.00 | 0.00 | 0.00 | 94 | 1009.0 |
| 20260505111857 | 53 | 140 | 0.0 | 1.0 | 0.00 | 0.00 | 0.00 | 94 | 1009.0 |
| 20260505111658 | 52 | 140 | 0.0 | 1.0 | 0.00 | 0.00 | 0.00 | 94 | 1008.9 |
| 20260505111557 | 52 | 140 | 0.0 | 1.0 | 0.00 | 0.00 | 0.00 | 94 | 1009.0 |
| 20260505111458 | 52 | 140 | 0.0 | 1.0 | 0.00 | 0.00 | 0.00 | 94 | 1009.0 |
| 20260505111356 | 52 | 140 | 0.0 | 1.0 | 0.00 | 0.00 | 0.00 | 94 | 1009.0 |
| 20260505111256 | 52 | 140 | 0.0 | 1.0 | 0.00 | 0.00 | 0.00 | 94 | 1009.0 |
| 20260505111157 | 51 | 140 | 0.0 | 1.0 | 0.00 | 0.00 | 0.00 | 94 | 1009.0 |
| 20260505110959 | 51 | 140 | 0.0 | 1.0 | 0.00 | 0.00 | 0.00 | 94 | 1009.0 |
| 20260505110756 | 51 | 140 | 0.0 | 2.0 | 0.00 | 0.00 | 0.00 | 94 | 1008.9 |
| 20260505110700 | 51 | 140 | 0.0 | 2.0 | 0.00 | 0.00 | 0.00 | 94 | 1008.9 |
| 20260505110556 | 51 | 140 | 0.0 | 2.0 | 0.00 | 0.00 | 0.00 | 94 | 1008.9 |
| 20260505110357 | 51 | 140 | 0.0 | 3.0 | 0.00 | 0.00 | 0.00 | 94 | 1008.9 |
| 20260505110257 | 51 | 140 | 0.0 | 3.0 | 0.00 | 0.00 | 0.00 | 94 | 1008.8 |
| 20260505110157 | 51 | 140 | 0.0 | 3.0 | 0.00 | 0.00 | 0.00 | 94 | 1008.9 |
| 20260505101958 | 49 | 140 | 0.0 | 2.0 | 0.00 | 0.00 | 0.00 | 94 | 1008.7 |
| 20260505101858 | 49 | 140 | 0.0 | 2.0 | 0.00 | 0.00 | 0.00 | 94 | 1008.6 |
| 20260505101758 | 49 | 140 | 1.0 | 2.0 | 0.00 | 0.00 | 0.00 | 94 | 1008.6 |
| 20260505101658 | 49 | 140 | 0.0 | 2.0 | 0.00 | 0.00 | 0.00 | 94 | 1008.6 |
| 20260505101556 | 49 | 140 | 0.0 | 2.0 | 0.00 | 0.00 | 0.00 | 94 | 1008.6 |
| 20260505101459 | 49 | 140 | 2.0 | 2.0 | 0.00 | 0.00 | 0.00 | 94 | 1008.6 |
| 20260505101356 | 49 | 140 | 1.0 | 1.0 | 0.00 | 0.00 | 0.00 | 94 | 1008.6 |
| 20260505101258 | 49 | 140 | 1.0 | 1.0 | 0.00 | 0.00 | 0.00 | 94 | 1008.6 |
| 20260505101159 | 49 | 140 | 0.0 | 1.0 | 0.00 | 0.00 | 0.00 | 94 | 1008.5 |
| 20260505101056 | 49 | 140 | 0.0 | 3.0 | 0.00 | 0.00 | 0.00 | 94 | 1008.5 |
| 20260505100958 | 49 | 140 | 0.0 | 3.0 | 0.00 | 0.00 | 0.00 | 94 | 1008.5 |
| 20260505100857 | 49 | 140 | 0.0 | 3.0 | 0.00 | 0.00 | 0.00 | 94 | 1008.5 |
| 20260505100757 | 49 | 140 | 0.0 | 3.0 | 0.00 | 0.00 | 0.00 | 94 | 1008.5 |
| 20260505100557 | 49 | 140 | 0.0 | 3.0 | 0.00 | 0.00 | 0.00 | 94 | 1008.4 |
| 20260505100458 | 49 | 140 | 0.0 | 3.0 | 0.00 | 0.00 | 0.00 | 94 | 1008.5 |
| 20260505100358 | 49 | 140 | 0.0 | 3.0 | 0.00 | 0.00 | 0.00 | 94 | 1008.5 |
| 20260505095958 | 49 | 140 | 0.0 | 0.0 | 0.00 | 0.00 | 0.00 | 94 | 1008.5 |
| 20260505095858 | 49 | 140 | 0.0 | 0.0 | 0.00 | 0.00 | 0.00 | 94 | 1008.5 |
| 20260505095757 | 49 | 140 | 0.0 | 0.0 | 0.00 | 0.00 | 0.00 | 94 | 1008.4 |
| 20260505095559 | 49 | 140 | 0.0 | 0.0 | 0.00 | 0.00 | 0.00 | 94 | 1008.4 |
| 20260505095458 | 49 | 140 | 0.0 | 0.0 | 0.00 | 0.00 | 0.00 | 94 | 1008.3 |
| 20260505095401 | 49 | 140 | 0.0 | 0.0 | 0.00 | 0.00 | 0.00 | 94 | 1008.4 |
| 20260505095259 | 49 | 140 | 0.0 | 2.0 | 0.00 | 0.00 | 0.00 | 94 | 1008.3 |
| 20260505095159 | 49 | 140 | 0.0 | 2.0 | 0.00 | 0.00 | 0.00 | 94 | 1008.3 |
| 20260505095058 | 49 | 140 | 0.0 | 2.0 | 0.00 | 0.00 | 0.00 | 94 | 1008.3 |
| 20260505095000 | 49 | 140 | 0.0 | 2.0 | 0.00 | 0.00 | 0.00 | 94 | 1008.3 |
| 20260505094858 | 49 | 140 | 0.0 | 2.0 | 0.00 | 0.00 | 0.00 | 94 | 1008.2 |
| 20260505094758 | 49 | 140 | 0.0 | 2.0 | 0.00 | 0.00 | 0.00 | 94 | 1008.2 |
| 20260505094659 | 49 | 140 | 0.0 | 2.0 | 0.00 | 0.00 | 0.00 | 94 | 1008.2 |
| 20260505094558 | 49 | 140 | 0.0 | 2.0 | 0.00 | 0.00 | 0.00 | 94 | 1008.1 |
| 20260505094501 | 49 | 140 | 0.0 | 2.0 | 0.00 | 0.00 | 0.00 | 94 | 1008.1 |
| 20260505094258 | 49 | 140 | 1.0 | 2.0 | 0.00 | 0.00 | 0.00 | 94 | 1008.1 |
| 20260505094158 | 49 | 140 | 0.0 | 2.0 | 0.00 | 0.00 | 0.00 | 94 | 1008.0 |
| 20260505094058 | 49 | 140 | 0.0 | 2.0 | 0.00 | 0.00 | 0.00 | 94 | 1008.0 |
| 20260505094001 | 49 | 140 | 0.0 | 2.0 | 0.00 | 0.00 | 0.00 | 94 | 1008.1 |
| 20260505093659 | 49 | 140 | 0.0 | 2.0 | 0.00 | 0.00 | 0.00 | 94 | 1008.1 |
| 20260505093558 | 49 | 140 | 1.0 | 2.0 | 0.00 | 0.00 | 0.00 | 94 | 1008.1 |
| 20260505093500 | 49 | 140 | 1.0 | 2.0 | 0.00 | 0.00 | 0.00 | 94 | 1008.1 |
| 20260505093257 | 49 | 140 | 1.0 | 2.0 | 0.00 | 0.00 | 0.00 | 94 | 1008.1 |
| 20260505092958 | 50 | 140 | 0.0 | 2.0 | 0.00 | 0.00 | 0.00 | 94 | 1008.1 |
| 20260505092857 | 50 | 140 | 1.0 | 2.0 | 0.00 | 0.00 | 0.00 | 94 | 1008.1 |
| 20260505092758 | 50 | 140 | 1.0 | 2.0 | 0.00 | 0.00 | 0.00 | 94 | 1008.1 |
| 20260505092658 | 50 | 140 | 0.0 | 0.0 | 0.00 | 0.00 | 0.00 | 94 | 1008.0 |
| 20260505092358 | 50 | 140 | 0.0 | 2.0 | 0.00 | 0.00 | 0.00 | 93 | 1008.1 |
| 20260505092257 | 50 | 140 | 0.0 | 2.0 | 0.00 | 0.00 | 0.00 | 94 | 1008.0 |
| 20260505092158 | 50 | 140 | 0.0 | 2.0 | 0.00 | 0.00 | 0.00 | 94 | 1008.1 |
| 20260505092000 | 50 | 140 | 0.0 | 2.0 | 0.00 | 0.00 | 0.00 | 94 | 1008.1 |
| 20260505091858 | 50 | 140 | 0.0 | 2.0 | 0.00 | 0.00 | 0.00 | 94 | 1008.0 |
| 20260505091757 | 50 | 140 | 0.0 | 2.0 | 0.00 | 0.00 | 0.00 | 93 | 1008.0 |
| 20260505091657 | 50 | 140 | 0.0 | 2.0 | 0.00 | 0.00 | 0.00 | 93 | 1008.0 |
| 20260505091559 | 50 | 140 | 2.0 | 2.0 | 0.00 | 0.00 | 0.00 | 93 | 1008.0 |
| 20260505091459 | 50 | 140 | 0.0 | 2.0 | 0.00 | 0.00 | 0.00 | 93 | 1008.0 |
| 20260505091357 | 50 | 140 | 0.0 | 2.0 | 0.00 | 0.00 | 0.00 | 93 | 1008.0 |
| 20260505091257 | 50 | 140 | 1.0 | 2.0 | 0.00 | 0.00 | 0.00 | 93 | 1008.0 |
| 20260505091158 | 50 | 140 | 0.0 | 2.0 | 0.00 | 0.00 | 0.00 | 93 | 1008.0 |
| 20260505091058 | 50 | 140 | 1.0 | 2.0 | 0.00 | 0.00 | 0.00 | 93 | 1008.0 |
| 20260505090959 | 50 | 140 | 0.0 | 2.0 | 0.00 | 0.00 | 0.00 | 93 | 1008.0 |
| 20260505090758 | 50 | 140 | 1.0 | 2.0 | 0.00 | 0.00 | 0.00 | 93 | 1008.0 |
| 20260505090657 | 50 | 140 | 1.0 | 2.0 | 0.00 | 0.00 | 0.00 | 93 | 1008.0 |
| 20260505090559 | 50 | 140 | 0.0 | 2.0 | 0.00 | 0.00 | 0.00 | 93 | 1008.1 |
| 20260505090501 | 50 | 140 | 0.0 | 2.0 | 0.00 | 0.00 | 0.00 | 93 | 1008.1 |
| 20260505090357 | 50 | 140 | 1.0 | 2.0 | 0.00 | 0.00 | 0.00 | 93 | 1008.0 |
| 20260505090258 | 50 | 140 | 1.0 | 2.0 | 0.00 | 0.00 | 0.00 | 93 | 1008.1 |
| 20260505090057 | 50 | 140 | 0.0 | 2.0 | 0.00 | 0.00 | 0.00 | 93 | 1008.1 |
| 20260505085757 | 50 | 140 | 0.0 | 2.0 | 0.00 | 0.00 | 0.00 | 93 | 1008.1 |
| 20260505085656 | 50 | 140 | 0.0 | 2.0 | 0.00 | 0.00 | 0.00 | 93 | 1008.0 |
| 20260505085557 | 50 | 140 | 0.0 | 2.0 | 0.00 | 0.00 | 0.00 | 93 | 1008.1 |
| 20260505085357 | 50 | 140 | 0.0 | 2.0 | 0.00 | 0.00 | 0.00 | 93 | 1008.1 |
| 20260505085257 | 50 | 140 | 0.0 | 2.0 | 0.00 | 0.00 | 0.00 | 93 | 1008.1 |
| 20260505085157 | 50 | 140 | 0.0 | 2.0 | 0.00 | 0.00 | 0.00 | 93 | 1008.0 |
| 20260505085056 | 50 | 140 | 1.0 | 2.0 | 0.00 | 0.00 | 0.00 | 93 | 1008.1 |
| 20260505084858 | 50 | 140 | 1.0 | 2.0 | 0.00 | 0.00 | 0.00 | 93 | 1008.1 |
| 20260505084757 | 50 | 140 | 0.0 | 2.0 | 0.00 | 0.00 | 0.00 | 93 | 1008.1 |
| 20260505084556 | 50 | 140 | 0.0 | 2.0 | 0.00 | 0.00 | 0.00 | 93 | 1008.1 |
| 20260505084459 | 50 | 140 | 0.0 | 2.0 | 0.00 | 0.00 | 0.00 | 93 | 1008.1 |
| 20260505084357 | 50 | 140 | 0.0 | 2.0 | 0.00 | 0.00 | 0.00 | 93 | 1008.1 |
| 20260505084258 | 50 | 140 | 1.0 | 2.0 | 0.00 | 0.00 | 0.00 | 93 | 1008.1 |
| 20260505084157 | 50 | 140 | 0.0 | 2.0 | 0.00 | 0.00 | 0.00 | 93 | 1008.1 |
| 20260505084056 | 51 | 140 | 1.0 | 2.0 | 0.00 | 0.00 | 0.00 | 93 | 1008.0 |
| 20260505083958 | 51 | 140 | 0.0 | 2.0 | 0.00 | 0.00 | 0.00 | 92 | 1008.0 |
| 20260505083858 | 51 | 140 | 0.0 | 2.0 | 0.00 | 0.00 | 0.00 | 92 | 1008.0 |
| 20260505083558 | 51 | 140 | 0.0 | 2.0 | 0.00 | 0.00 | 0.00 | 93 | 1008.1 |
| 20260505083458 | 51 | 140 | 0.0 | 2.0 | 0.00 | 0.00 | 0.00 | 93 | 1008.0 |
| 20260505083358 | 51 | 140 | 1.0 | 2.0 | 0.00 | 0.00 | 0.00 | 93 | 1008.1 |
| 20260505083257 | 51 | 140 | 0.0 | 2.0 | 0.00 | 0.00 | 0.00 | 93 | 1008.1 |
| 20260505083157 | 51 | 140 | 0.0 | 2.0 | 0.00 | 0.00 | 0.00 | 93 | 1008.1 |
| 20260505083057 | 51 | 140 | 0.0 | 2.0 | 0.00 | 0.00 | 0.00 | 93 | 1008.0 |
| 20260505082959 | 51 | 140 | 0.0 | 2.0 | 0.00 | 0.00 | 0.00 | 92 | 1008.1 |
| 20260505082857 | 51 | 140 | 1.0 | 2.0 | 0.00 | 0.00 | 0.00 | 92 | 1008.0 |
| 20260505082757 | 51 | 140 | 1.0 | 2.0 | 0.00 | 0.00 | 0.00 | 92 | 1008.1 |
| 20260505082657 | 51 | 140 | 1.0 | 2.0 | 0.00 | 0.00 | 0.00 | 92 | 1008.0 |
| 20260505082459 | 51 | 140 | 0.0 | 2.0 | 0.00 | 0.00 | 0.00 | 92 | 1008.1 |
| 20260505082357 | 51 | 140 | 1.0 | 2.0 | 0.00 | 0.00 | 0.00 | 92 | 1008.1 |
| 20260505082257 | 51 | 140 | 0.0 | 2.0 | 0.00 | 0.00 | 0.00 | 92 | 1008.1 |
| 20260505082157 | 51 | 140 | 0.0 | 2.0 | 0.00 | 0.00 | 0.00 | 92 | 1008.1 |
| 20260505082056 | 51 | 140 | 0.0 | 2.0 | 0.00 | 0.00 | 0.00 | 92 | 1008.0 |
| 20260505081858 | 51 | 140 | 1.0 | 2.0 | 0.00 | 0.00 | 0.00 | 92 | 1008.1 |
| 20260505081758 | 51 | 140 | 1.0 | 2.0 | 0.00 | 0.00 | 0.00 | 92 | 1008.1 |
| 20260505081656 | 51 | 140 | 0.0 | 2.0 | 0.00 | 0.00 | 0.00 | 92 | 1008.0 |
| 20260505081557 | 51 | 140 | 0.0 | 2.0 | 0.00 | 0.00 | 0.00 | 92 | 1008.0 |
| 20260505081457 | 51 | 140 | 0.0 | 2.0 | 0.00 | 0.00 | 0.00 | 92 | 1008.0 |
| 20260505081357 | 51 | 140 | 1.0 | 2.0 | 0.00 | 0.00 | 0.00 | 92 | 1008.0 |
| 20260505081257 | 51 | 140 | 0.0 | 2.0 | 0.00 | 0.00 | 0.00 | 92 | 1008.0 |
| 20260505081158 | 51 | 140 | 0.0 | 2.0 | 0.00 | 0.00 | 0.00 | 91 | 1007.9 |
| 20260505080958 | 51 | 140 | 0.0 | 3.0 | 0.00 | 0.00 | 0.00 | 91 | 1007.9 |
| 20260505080858 | 51 | 140 | 0.0 | 3.0 | 0.00 | 0.00 | 0.00 | 91 | 1007.9 |
| 20260505080757 | 51 | 140 | 0.0 | 3.0 | 0.00 | 0.00 | 0.00 | 91 | 1007.9 |
| 20260505080657 | 51 | 140 | 2.0 | 3.0 | 0.00 | 0.00 | 0.00 | 91 | 1007.9 |
| 20260505080557 | 52 | 140 | 0.0 | 3.0 | 0.00 | 0.00 | 0.00 | 91 | 1007.9 |
| 20260505080459 | 52 | 140 | 0.0 | 3.0 | 0.00 | 0.00 | 0.00 | 91 | 1007.9 |
| 20260505080357 | 52 | 140 | 0.0 | 3.0 | 0.00 | 0.00 | 0.00 | 91 | 1007.8 |
| 20260505080157 | 52 | 140 | 0.0 | 3.0 | 0.00 | 0.00 | 0.00 | 91 | 1007.9 |
| 20260505080058 | 52 | 140 | 2.0 | 3.0 | 0.00 | 0.00 | 0.00 | 91 | 1007.8 |
| 20260505080001 | 52 | 140 | 0.0 | 2.0 | 0.00 | 0.00 | 0.00 | 91 | 1007.8 |
| 20260505075857 | 52 | 140 | 0.0 | 2.0 | 0.00 | 0.00 | 0.00 | 91 | 1007.9 |
| 20260505075656 | 52 | 140 | 1.0 | 3.0 | 0.00 | 0.00 | 0.00 | 91 | 1007.9 |
| 20260505075557 | 52 | 140 | 1.0 | 3.0 | 0.00 | 0.00 | 0.00 | 91 | 1007.8 |
| 20260505075458 | 52 | 140 | 0.0 | 3.0 | 0.00 | 0.00 | 0.00 | 91 | 1007.8 |
| 20260505075358 | 52 | 140 | 0.0 | 3.0 | 0.00 | 0.00 | 0.00 | 91 | 1007.8 |
| 20260505075258 | 52 | 140 | 2.0 | 3.0 | 0.00 | 0.00 | 0.00 | 91 | 1007.8 |
| 20260505075158 | 52 | 140 | 2.0 | 3.0 | 0.00 | 0.00 | 0.00 | 91 | 1007.8 |
| 20260505075058 | 52 | 140 | 1.0 | 3.0 | 0.00 | 0.00 | 0.00 | 91 | 1007.8 |
| 20260505074857 | 52 | 140 | 1.0 | 3.0 | 0.00 | 0.00 | 0.00 | 91 | 1007.7 |
| 20260505074757 | 52 | 140 | 0.0 | 3.0 | 0.00 | 0.00 | 0.00 | 91 | 1007.7 |
| 20260505074657 | 52 | 140 | 0.0 | 0.0 | 0.00 | 0.00 | 0.00 | 91 | 1007.8 |
| 20260505074556 | 52 | 140 | 0.0 | 0.0 | 0.00 | 0.00 | 0.00 | 91 | 1007.8 |
| 20260505074357 | 52 | 140 | 0.0 | 0.0 | 0.00 | 0.00 | 0.00 | 91 | 1007.8 |
| 20260505074257 | 52 | 140 | 0.0 | 0.0 | 0.00 | 0.00 | 0.00 | 91 | 1007.8 |
| 20260505074157 | 52 | 140 | 0.0 | 0.0 | 0.00 | 0.00 | 0.00 | 91 | 1007.8 |
| 20260505074057 | 53 | 140 | 0.0 | 0.0 | 0.00 | 0.00 | 0.00 | 91 | 1007.8 |
| 20260505073957 | 53 | 141 | 0.0 | 0.0 | 0.00 | 0.00 | 0.00 | 91 | 1007.8 |
| 20260505073857 | 53 | 141 | 0.0 | 0.0 | 0.00 | 0.00 | 0.00 | 91 | 1007.6 |
| 20260505073757 | 53 | 141 | 0.0 | 0.0 | 0.00 | 0.00 | 0.00 | 91 | 1007.6 |
| 20260505073656 | 53 | 141 | 0.0 | 0.0 | 0.00 | 0.00 | 0.00 | 91 | 1007.7 |
| 20260505073556 | 53 | 141 | 0.0 | 0.0 | 0.00 | 0.00 | 0.00 | 91 | 1007.7 |
| 20260505073357 | 53 | 141 | 0.0 | 0.0 | 0.00 | 0.00 | 0.00 | 91 | 1007.6 |
| 20260505073257 | 53 | 141 | 0.0 | 0.0 | 0.00 | 0.00 | 0.00 | 91 | 1007.6 |
| 20260505073158 | 53 | 141 | 0.0 | 0.0 | 0.00 | 0.00 | 0.00 | 90 | 1007.6 |
| 20260505073059 | 53 | 141 | 0.0 | 0.0 | 0.00 | 0.00 | 0.00 | 90 | 1007.7 |
| 20260505072959 | 53 | 141 | 0.0 | 0.0 | 0.00 | 0.00 | 0.00 | 90 | 1007.7 |
| 20260505072857 | 53 | 141 | 0.0 | 0.0 | 0.00 | 0.00 | 0.00 | 90 | 1007.5 |
| 20260505072757 | 53 | 141 | 0.0 | 0.0 | 0.00 | 0.00 | 0.00 | 90 | 1007.5 |
| 20260505072657 | 53 | 141 | 0.0 | 0.0 | 0.00 | 0.00 | 0.00 | 90 | 1007.6 |
| 20260505072556 | 53 | 141 | 0.0 | 0.0 | 0.00 | 0.00 | 0.00 | 90 | 1007.6 |
| 20260505072458 | 53 | 141 | 0.0 | 0.0 | 0.00 | 0.00 | 0.00 | 90 | 1007.6 |
| 20260505072357 | 53 | 141 | 0.0 | 0.0 | 0.00 | 0.00 | 0.00 | 90 | 1007.6 |
| 20260505072156 | 53 | 141 | 0.0 | 0.0 | 0.00 | 0.00 | 0.00 | 90 | 1007.6 |
| 20260505072057 | 53 | 141 | 0.0 | 0.0 | 0.00 | 0.00 | 0.00 | 90 | 1007.6 |
| 20260505072000 | 53 | 141 | 0.0 | 0.0 | 0.00 | 0.00 | 0.00 | 90 | 1007.6 |
| 20260505071857 | 53 | 141 | 0.0 | 0.0 | 0.00 | 0.00 | 0.00 | 90 | 1007.6 |
| 20260505071657 | 53 | 141 | 0.0 | 0.0 | 0.00 | 0.00 | 0.00 | 90 | 1007.6 |
| 20260505071559 | 53 | 141 | 0.0 | 0.0 | 0.00 | 0.00 | 0.00 | 90 | 1007.6 |
| 20260505071458 | 54 | 141 | 0.0 | 0.0 | 0.00 | 0.00 | 0.00 | 90 | 1007.5 |
| 20260505071357 | 54 | 141 | 0.0 | 0.0 | 0.00 | 0.00 | 0.00 | 90 | 1007.5 |
| 20260505071057 | 54 | 141 | 0.0 | 0.0 | 0.00 | 0.00 | 0.00 | 89 | 1007.6 |
| 20260505070856 | 54 | 141 | 0.0 | 0.0 | 0.00 | 0.00 | 0.00 | 89 | 1007.6 |
| 20260505070757 | 54 | 141 | 0.0 | 0.0 | 0.00 | 0.00 | 0.00 | 89 | 1007.6 |
| 20260505070657 | 54 | 141 | 0.0 | 0.0 | 0.00 | 0.00 | 0.00 | 89 | 1007.6 |
| 20260505070458 | 54 | 141 | 0.0 | 0.0 | 0.00 | 0.00 | 0.00 | 89 | 1007.6 |
| 20260505070357 | 54 | 141 | 0.0 | 0.0 | 0.00 | 0.00 | 0.00 | 89 | 1007.6 |
| 20260505070258 | 54 | 141 | 0.0 | 0.0 | 0.00 | 0.00 | 0.00 | 89 | 1007.6 |
| 20260505070157 | 54 | 141 | 0.0 | 0.0 | 0.00 | 0.00 | 0.00 | 89 | 1007.6 |
| 20260505070058 | 54 | 141 | 0.0 | 0.0 | 0.00 | 0.00 | 0.00 | 89 | 1007.6 |
| 20260505065957 | 54 | 141 | 0.0 | 0.0 | 0.00 | 0.00 | 0.00 | 89 | 1007.6 |
| 20260505065858 | 54 | 141 | 0.0 | 0.0 | 0.00 | 0.00 | 0.00 | 89 | 1007.6 |
| 20260505065757 | 54 | 141 | 0.0 | 0.0 | 0.00 | 0.00 | 0.00 | 88 | 1007.6 |
| 20260505065658 | 54 | 141 | 0.0 | 0.0 | 0.00 | 0.00 | 0.00 | 88 | 1007.6 |
| 20260505065558 | 55 | 141 | 0.0 | 0.0 | 0.00 | 0.00 | 0.00 | 88 | 1007.6 |
| 20260505065459 | 55 | 141 | 0.0 | 0.0 | 0.00 | 0.00 | 0.00 | 88 | 1007.6 |
| 20260505065359 | 55 | 141 | 0.0 | 0.0 | 0.00 | 0.00 | 0.00 | 88 | 1007.6 |
| 20260505065258 | 55 | 141 | 0.0 | 0.0 | 0.00 | 0.00 | 0.00 | 88 | 1007.6 |
| 20260505065158 | 55 | 141 | 0.0 | 0.0 | 0.00 | 0.00 | 0.00 | 88 | 1007.6 |
| 20260505064959 | 55 | 141 | 0.0 | 0.0 | 0.00 | 0.00 | 0.00 | 88 | 1007.6 |
| 20260505064759 | 55 | 141 | 0.0 | 0.0 | 0.00 | 0.00 | 0.00 | 88 | 1007.5 |
| 20260505064657 | 55 | 141 | 0.0 | 0.0 | 0.00 | 0.00 | 0.00 | 88 | 1007.5 |
| 20260505064559 | 55 | 141 | 0.0 | 0.0 | 0.00 | 0.00 | 0.00 | 88 | 1007.5 |
| 20260505064500 | 55 | 140 | 0.0 | 0.0 | 0.00 | 0.00 | 0.00 | 87 | 1007.5 |
| 20260505064359 | 55 | 141 | 0.0 | 0.0 | 0.00 | 0.00 | 0.00 | 87 | 1007.6 |
| 20260505064258 | 55 | 141 | 0.0 | 0.0 | 0.00 | 0.00 | 0.00 | 87 | 1007.6 |
| 20260505064158 | 55 | 141 | 0.0 | 0.0 | 0.00 | 0.00 | 0.00 | 87 | 1007.6 |
| 20260505064058 | 55 | 141 | 0.0 | 0.0 | 0.00 | 0.00 | 0.00 | 88 | 1007.6 |
| 20260505064001 | 55 | 141 | 0.0 | 0.0 | 0.00 | 0.00 | 0.00 | 87 | 1007.6 |
| 20260505063859 | 55 | 141 | 0.0 | 0.0 | 0.00 | 0.00 | 0.00 | 87 | 1007.7 |
| 20260505063759 | 55 | 141 | 0.0 | 0.0 | 0.00 | 0.00 | 0.00 | 87 | 1007.7 |
| 20260505063659 | 55 | 141 | 0.0 | 0.0 | 0.00 | 0.00 | 0.00 | 87 | 1007.6 |
| 20260505063558 | 55 | 141 | 0.0 | 0.0 | 0.00 | 0.00 | 0.00 | 87 | 1007.6 |
| 20260505063258 | 55 | 141 | 0.0 | 0.0 | 0.00 | 0.00 | 0.00 | 87 | 1007.7 |
| 20260505063158 | 55 | 141 | 0.0 | 0.0 | 0.00 | 0.00 | 0.00 | 87 | 1007.7 |
| 20260505063058 | 55 | 141 | 0.0 | 0.0 | 0.00 | 0.00 | 0.00 | 87 | 1007.7 |
| 20260505063000 | 55 | 141 | 0.0 | 0.0 | 0.00 | 0.00 | 0.00 | 87 | 1007.7 |
| 20260505062858 | 55 | 141 | 0.0 | 0.0 | 0.00 | 0.00 | 0.00 | 87 | 1007.7 |
| 20260505062759 | 55 | 141 | 0.0 | 0.0 | 0.00 | 0.00 | 0.00 | 87 | 1007.8 |
| 20260505062700 | 55 | 141 | 0.0 | 0.0 | 0.00 | 0.00 | 0.00 | 87 | 1007.9 |
| 20260505062459 | 55 | 141 | 0.0 | 0.0 | 0.00 | 0.00 | 0.00 | 87 | 1007.9 |
| 20260505062357 | 55 | 141 | 0.0 | 0.0 | 0.00 | 0.00 | 0.00 | 86 | 1007.8 |
| 20260505062158 | 55 | 141 | 0.0 | 0.0 | 0.00 | 0.00 | 0.00 | 86 | 1007.7 |
| 20260505062100 | 56 | 141 | 0.0 | 0.0 | 0.00 | 0.00 | 0.00 | 86 | 1007.8 |
| 20260505061959 | 56 | 141 | 0.0 | 0.0 | 0.00 | 0.00 | 0.00 | 86 | 1007.7 |
| 20260505061858 | 56 | 141 | 0.0 | 0.0 | 0.00 | 0.00 | 0.00 | 86 | 1007.8 |
| 20260505061759 | 56 | 141 | 0.0 | 0.0 | 0.00 | 0.00 | 0.00 | 86 | 1007.8 |
| 20260505061358 | 56 | 141 | 0.0 | 0.0 | 0.00 | 0.00 | 0.00 | 86 | 1007.8 |
| 20260505061258 | 56 | 141 | 0.0 | 0.0 | 0.00 | 0.00 | 0.00 | 86 | 1007.8 |
| 20260505061058 | 56 | 141 | 0.0 | 0.0 | 0.00 | 0.00 | 0.00 | 85 | 1007.9 |
| 20260505060959 | 56 | 141 | 0.0 | 0.0 | 0.00 | 0.00 | 0.00 | 85 | 1007.9 |
| 20260505060858 | 56 | 141 | 0.0 | 0.0 | 0.00 | 0.00 | 0.00 | 85 | 1008.0 |
| 20260505060759 | 56 | 141 | 0.0 | 0.0 | 0.00 | 0.00 | 0.00 | 85 | 1007.9 |
| 20260505060658 | 56 | 141 | 0.0 | 0.0 | 0.00 | 0.00 | 0.00 | 85 | 1007.9 |
| 20260505060559 | 56 | 141 | 0.0 | 0.0 | 0.00 | 0.00 | 0.00 | 85 | 1007.9 |
| 20260505060459 | 56 | 141 | 0.0 | 0.0 | 0.00 | 0.00 | 0.00 | 85 | 1007.9 |
| 20260505060358 | 56 | 141 | 0.0 | 0.0 | 0.00 | 0.00 | 0.00 | 85 | 1007.9 |
| 20260505060258 | 56 | 141 | 0.0 | 0.0 | 0.00 | 0.00 | 0.00 | 85 | 1007.7 |
| 20260505060157 | 56 | 141 | 0.0 | 0.0 | 0.00 | 0.00 | 0.00 | 85 | 1007.8 |
| 20260505060059 | 56 | 141 | 0.0 | 0.0 | 0.00 | 0.00 | 0.00 | 85 | 1007.8 |
| 20260505055958 | 56 | 141 | 0.0 | 0.0 | 0.00 | 0.00 | 0.00 | 85 | 1007.8 |
| 20260505055859 | 56 | 141 | 0.0 | 0.0 | 0.00 | 0.00 | 0.00 | 85 | 1007.9 |
| 20260505055756 | 56 | 141 | 0.0 | 0.0 | 0.00 | 0.00 | 0.00 | 85 | 1007.8 |
| 20260505055657 | 56 | 141 | 0.0 | 0.0 | 0.00 | 0.00 | 0.00 | 85 | 1007.7 |
| 20260505055556 | 56 | 141 | 0.0 | 0.0 | 0.00 | 0.00 | 0.00 | 85 | 1007.8 |
| 20260505055458 | 56 | 141 | 0.0 | 0.0 | 0.00 | 0.00 | 0.00 | 85 | 1007.8 |
| 20260505055356 | 56 | 141 | 0.0 | 0.0 | 0.00 | 0.00 | 0.00 | 85 | 1007.9 |
| 20260505055256 | 56 | 141 | 0.0 | 0.0 | 0.00 | 0.00 | 0.00 | 85 | 1007.9 |
| 20260505055157 | 56 | 141 | 0.0 | 0.0 | 0.00 | 0.00 | 0.00 | 85 | 1007.7 |
| 20260505055057 | 56 | 141 | 0.0 | 0.0 | 0.00 | 0.00 | 0.00 | 85 | 1007.9 |
| 20260505054959 | 56 | 141 | 0.0 | 0.0 | 0.00 | 0.00 | 0.00 | 84 | 1007.9 |
| 20260505054857 | 56 | 141 | 0.0 | 0.0 | 0.00 | 0.00 | 0.00 | 84 | 1007.7 |
| 20260505054757 | 56 | 141 | 0.0 | 0.0 | 0.00 | 0.00 | 0.00 | 85 | 1007.9 |
| 20260505054658 | 56 | 141 | 0.0 | 0.0 | 0.00 | 0.00 | 0.00 | 85 | 1007.8 |
| 20260505054356 | 56 | 141 | 0.0 | 0.0 | 0.00 | 0.00 | 0.00 | 85 | 1007.8 |
| 20260505054157 | 56 | 141 | 0.0 | 0.0 | 0.00 | 0.00 | 0.00 | 85 | 1007.8 |
| 20260505054056 | 56 | 141 | 0.0 | 0.0 | 0.00 | 0.00 | 0.00 | 84 | 1007.8 |
| 20260505053958 | 56 | 141 | 0.0 | 0.0 | 0.00 | 0.00 | 0.00 | 84 | 1007.8 |
| 20260505053856 | 56 | 141 | 0.0 | 0.0 | 0.00 | 0.00 | 0.00 | 84 | 1007.8 |
| 20260505053757 | 56 | 141 | 0.0 | 0.0 | 0.00 | 0.00 | 0.00 | 84 | 1007.8 |
| 20260505053657 | 56 | 141 | 0.0 | 0.0 | 0.00 | 0.00 | 0.00 | 84 | 1007.8 |
| 20260505053556 | 56 | 141 | 0.0 | 0.0 | 0.00 | 0.00 | 0.00 | 84 | 1007.9 |
| 20260505053458 | 56 | 141 | 0.0 | 0.0 | 0.00 | 0.00 | 0.00 | 83 | 1007.9 |
| 20260505053358 | 56 | 141 | 0.0 | 0.0 | 0.00 | 0.00 | 0.00 | 83 | 1007.9 |
| 20260505053156 | 56 | 141 | 0.0 | 0.0 | 0.00 | 0.00 | 0.00 | 83 | 1007.8 |
| 20260505053056 | 56 | 141 | 0.0 | 0.0 | 0.00 | 0.00 | 0.00 | 83 | 1007.8 |
| 20260505052958 | 56 | 141 | 0.0 | 0.0 | 0.00 | 0.00 | 0.00 | 83 | 1007.9 |
| 20260505052856 | 56 | 141 | 0.0 | 0.0 | 0.00 | 0.00 | 0.00 | 84 | 1007.9 |
| 20260505052758 | 56 | 141 | 0.0 | 0.0 | 0.00 | 0.00 | 0.00 | 84 | 1007.9 |
| 20260505052658 | 56 | 141 | 0.0 | 0.0 | 0.00 | 0.00 | 0.00 | 84 | 1007.9 |
| 20260505052557 | 56 | 141 | 0.0 | 0.0 | 0.00 | 0.00 | 0.00 | 83 | 1007.8 |
| 20260505052458 | 56 | 141 | 0.0 | 0.0 | 0.00 | 0.00 | 0.00 | 83 | 1007.8 |
| 20260505052256 | 56 | 141 | 0.0 | 0.0 | 0.00 | 0.00 | 0.00 | 83 | 1007.9 |
| 20260505052157 | 56 | 141 | 0.0 | 0.0 | 0.00 | 0.00 | 0.00 | 83 | 1007.9 |
| 20260505052057 | 56 | 141 | 0.0 | 0.0 | 0.00 | 0.00 | 0.00 | 83 | 1007.9 |
| 20260505051958 | 56 | 141 | 0.0 | 0.0 | 0.00 | 0.00 | 0.00 | 83 | 1007.8 |
| 20260505051857 | 56 | 141 | 0.0 | 0.0 | 0.00 | 0.00 | 0.00 | 83 | 1007.8 |
| 20260505051657 | 56 | 141 | 0.0 | 1.0 | 0.00 | 0.00 | 0.00 | 83 | 1007.7 |
| 20260505051558 | 56 | 141 | 0.0 | 1.0 | 0.00 | 0.00 | 0.00 | 83 | 1007.7 |
| 20260505051500 | 56 | 141 | 0.0 | 1.0 | 0.00 | 0.00 | 0.00 | 83 | 1007.7 |
| 20260505051356 | 56 | 141 | 0.0 | 1.0 | 0.00 | 0.00 | 0.00 | 83 | 1007.7 |
| 20260505051157 | 56 | 141 | 0.0 | 1.0 | 0.00 | 0.00 | 0.00 | 83 | 1007.8 |
| 20260505051055 | 56 | 141 | 0.0 | 1.0 | 0.00 | 0.00 | 0.00 | 83 | 1007.8 |
| 20260505051000 | 56 | 141 | 0.0 | 1.0 | 0.00 | 0.00 | 0.00 | 83 | 1007.8 |
| 20260505050856 | 56 | 141 | 0.0 | 1.0 | 0.00 | 0.00 | 0.00 | 83 | 1007.8 |
| 20260505050757 | 56 | 141 | 0.0 | 1.0 | 0.00 | 0.00 | 0.00 | 83 | 1007.8 |
| 20260505050657 | 56 | 141 | 0.0 | 1.0 | 0.00 | 0.00 | 0.00 | 83 | 1007.8 |
| 20260505050557 | 56 | 141 | 0.0 | 1.0 | 0.00 | 0.00 | 0.00 | 83 | 1007.8 |
| 20260505050458 | 56 | 141 | 0.0 | 1.0 | 0.00 | 0.00 | 0.00 | 83 | 1007.9 |
| 20260505050357 | 56 | 141 | 0.0 | 1.0 | 0.00 | 0.00 | 0.00 | 83 | 1007.8 |
| 20260505050257 | 56 | 141 | 0.0 | 0.0 | 0.00 | 0.00 | 0.00 | 83 | 1007.8 |
| 20260505050157 | 56 | 141 | 0.0 | 0.0 | 0.00 | 0.00 | 0.00 | 83 | 1007.8 |
| 20260505041758 | 56 | 141 | 0.0 | 2.0 | 0.00 | 0.00 | 0.00 | 81 | 1007.6 |
| 20260505041658 | 56 | 141 | 0.0 | 2.0 | 0.00 | 0.00 | 0.00 | 81 | 1007.6 |
| 20260505041556 | 56 | 141 | 0.0 | 2.0 | 0.00 | 0.00 | 0.00 | 81 | 1007.6 |
| 20260505041356 | 56 | 141 | 1.0 | 2.0 | 0.00 | 0.00 | 0.00 | 81 | 1007.6 |
| 20260505041258 | 56 | 141 | 0.0 | 1.0 | 0.00 | 0.00 | 0.00 | 81 | 1007.6 |
| 20260505041057 | 56 | 141 | 0.0 | 2.0 | 0.00 | 0.00 | 0.00 | 81 | 1007.6 |
| 20260505040959 | 56 | 141 | 0.0 | 2.0 | 0.00 | 0.00 | 0.00 | 81 | 1007.5 |
| 20260505040857 | 56 | 141 | 0.0 | 2.0 | 0.00 | 0.00 | 0.00 | 81 | 1007.5 |
| 20260505040757 | 56 | 141 | 0.0 | 2.0 | 0.00 | 0.00 | 0.00 | 81 | 1007.5 |
| 20260505040657 | 56 | 141 | 0.0 | 2.0 | 0.00 | 0.00 | 0.00 | 81 | 1007.5 |
| 20260505040458 | 56 | 141 | 0.0 | 2.0 | 0.00 | 0.00 | 0.00 | 80 | 1007.5 |
| 20260505040357 | 56 | 141 | 0.0 | 2.0 | 0.00 | 0.00 | 0.00 | 80 | 1007.5 |
| 20260505040200 | 56 | 141 | 0.0 | 2.0 | 0.00 | 0.00 | 0.00 | 80 | 1007.5 |
| 20260505040101 | 56 | 141 | 0.0 | 1.0 | 0.00 | 0.00 | 0.00 | 80 | 1007.5 |
| 20260505035859 | 56 | 141 | 0.0 | 2.0 | 0.00 | 0.00 | 0.00 | 80 | 1007.6 |
| 20260505035759 | 56 | 141 | 0.0 | 2.0 | 0.00 | 0.00 | 0.00 | 80 | 1007.6 |
| 20260505035700 | 56 | 141 | 0.0 | 2.0 | 0.00 | 0.00 | 0.00 | 80 | 1007.6 |
| 20260505035600 | 56 | 141 | 0.0 | 2.0 | 0.00 | 0.00 | 0.00 | 80 | 1007.6 |
| 20260505035503 | 56 | 141 | 0.0 | 2.0 | 0.00 | 0.00 | 0.00 | 80 | 1007.6 |
| 20260505035200 | 56 | 141 | 0.0 | 2.0 | 0.00 | 0.00 | 0.00 | 80 | 1007.6 |
| 20260505035059 | 56 | 141 | 0.0 | 2.0 | 0.00 | 0.00 | 0.00 | 80 | 1007.6 |
| 20260505035003 | 56 | 141 | 0.0 | 1.0 | 0.00 | 0.00 | 0.00 | 80 | 1007.6 |
| 20260505034901 | 56 | 141 | 0.0 | 1.0 | 0.00 | 0.00 | 0.00 | 79 | 1007.7 |
| 20260505034659 | 56 | 141 | 0.0 | 2.0 | 0.00 | 0.00 | 0.00 | 80 | 1007.6 |
| 20260505034600 | 56 | 141 | 0.0 | 2.0 | 0.00 | 0.00 | 0.00 | 80 | 1007.6 |
| 20260505034500 | 56 | 141 | 0.0 | 2.0 | 0.00 | 0.00 | 0.00 | 80 | 1007.6 |
| 20260505034359 | 56 | 141 | 0.0 | 2.0 | 0.00 | 0.00 | 0.00 | 79 | 1007.6 |
| 20260505034200 | 56 | 141 | 0.0 | 2.0 | 0.00 | 0.00 | 0.00 | 79 | 1007.6 |
| 20260505034059 | 56 | 141 | 1.0 | 2.0 | 0.00 | 0.00 | 0.00 | 79 | 1007.6 |
| 20260505034004 | 56 | 141 | 0.0 | 2.0 | 0.00 | 0.00 | 0.00 | 79 | 1007.6 |
| 20260505033900 | 56 | 141 | 0.0 | 2.0 | 0.00 | 0.00 | 0.00 | 79 | 1007.6 |
| 20260505033800 | 56 | 141 | 0.0 | 2.0 | 0.00 | 0.00 | 0.00 | 79 | 1007.6 |
| 20260505033700 | 56 | 141 | 1.0 | 2.0 | 0.00 | 0.00 | 0.00 | 79 | 1007.6 |
| 20260505033559 | 56 | 141 | 0.0 | 2.0 | 0.00 | 0.00 | 0.00 | 79 | 1007.6 |
| 20260505033501 | 56 | 141 | 0.0 | 2.0 | 0.00 | 0.00 | 0.00 | 79 | 1007.5 |
| 20260505033359 | 56 | 141 | 1.0 | 2.0 | 0.00 | 0.00 | 0.00 | 79 | 1007.5 |
| 20260505033300 | 56 | 141 | 1.0 | 1.0 | 0.00 | 0.00 | 0.00 | 79 | 1007.4 |
| 20260505033059 | 56 | 141 | 0.0 | 0.0 | 0.00 | 0.00 | 0.00 | 79 | 1007.4 |
| 20260505032900 | 56 | 141 | 0.0 | 0.0 | 0.00 | 0.00 | 0.00 | 79 | 1007.4 |
| 20260505032759 | 56 | 141 | 0.0 | 0.0 | 0.00 | 0.00 | 0.00 | 79 | 1007.5 |
| 20260505032559 | 56 | 141 | 0.0 | 1.0 | 0.00 | 0.00 | 0.00 | 78 | 1007.5 |
| 20260505032503 | 56 | 141 | 0.0 | 1.0 | 0.00 | 0.00 | 0.00 | 78 | 1007.5 |
| 20260505032400 | 56 | 141 | 0.0 | 1.0 | 0.00 | 0.00 | 0.00 | 78 | 1007.6 |
| 20260505032300 | 56 | 141 | 0.0 | 1.0 | 0.00 | 0.00 | 0.00 | 78 | 1007.6 |
| 20260505032159 | 56 | 141 | 0.0 | 1.0 | 0.00 | 0.00 | 0.00 | 78 | 1007.6 |
| 20260505032058 | 56 | 141 | 0.0 | 2.0 | 0.00 | 0.00 | 0.00 | 78 | 1007.6 |
| 20260505032004 | 57 | 141 | 0.0 | 2.0 | 0.00 | 0.00 | 0.00 | 77 | 1007.6 |
| 20260505031700 | 57 | 141 | 0.0 | 2.0 | 0.00 | 0.00 | 0.00 | 77 | 1007.6 |
| 20260505031558 | 57 | 141 | 0.0 | 2.0 | 0.00 | 0.00 | 0.00 | 77 | 1007.6 |
| 20260505031503 | 57 | 141 | 0.0 | 2.0 | 0.00 | 0.00 | 0.00 | 77 | 1007.6 |
| 20260505031300 | 57 | 141 | 0.0 | 2.0 | 0.00 | 0.00 | 0.00 | 77 | 1007.6 |
| 20260505031159 | 57 | 141 | 1.0 | 2.0 | 0.00 | 0.00 | 0.00 | 77 | 1007.6 |
| 20260505031059 | 57 | 141 | 0.0 | 2.0 | 0.00 | 0.00 | 0.00 | 77 | 1007.5 |
| 20260505031000 | 57 | 141 | 0.0 | 2.0 | 0.00 | 0.00 | 0.00 | 78 | 1007.6 |
| 20260505030759 | 57 | 141 | 0.0 | 2.0 | 0.00 | 0.00 | 0.00 | 78 | 1007.5 |
| 20260505030659 | 57 | 141 | 0.0 | 2.0 | 0.00 | 0.00 | 0.00 | 78 | 1007.5 |
| 20260505030600 | 57 | 141 | 1.0 | 2.0 | 0.00 | 0.00 | 0.00 | 78 | 1007.5 |
| 20260505030501 | 57 | 141 | 0.0 | 2.0 | 0.00 | 0.00 | 0.00 | 78 | 1007.6 |
| 20260505030359 | 57 | 141 | 0.0 | 2.0 | 0.00 | 0.00 | 0.00 | 78 | 1007.6 |
| 20260505030300 | 57 | 141 | 2.0 | 2.0 | 0.00 | 0.00 | 0.00 | 77 | 1007.6 |
| 20260505030159 | 57 | 141 | 0.0 | 2.0 | 0.00 | 0.00 | 0.00 | 77 | 1007.6 |
| 20260505025959 | 57 | 141 | 1.0 | 3.0 | 0.00 | 0.00 | 0.00 | 77 | 1007.6 |
| 20260505025859 | 57 | 141 | 0.0 | 3.0 | 0.00 | 0.00 | 0.00 | 77 | 1007.6 |
| 20260505025758 | 57 | 141 | 0.0 | 3.0 | 0.00 | 0.00 | 0.00 | 77 | 1007.7 |
| 20260505025559 | 57 | 141 | 1.0 | 4.0 | 0.00 | 0.00 | 0.00 | 77 | 1007.6 |
| 20260505025459 | 58 | 141 | 1.0 | 4.0 | 0.00 | 0.00 | 0.00 | 76 | 1007.6 |
| 20260505025258 | 58 | 141 | 0.0 | 4.0 | 0.00 | 0.00 | 0.00 | 76 | 1007.6 |
| 20260505025158 | 58 | 141 | 0.0 | 4.0 | 0.00 | 0.00 | 0.00 | 76 | 1007.6 |
| 20260505025058 | 58 | 141 | 2.0 | 4.0 | 0.00 | 0.00 | 0.00 | 76 | 1007.6 |
| 20260505024959 | 58 | 142 | 0.0 | 4.0 | 0.00 | 0.00 | 0.00 | 76 | 1007.6 |
| 20260505024858 | 58 | 142 | 0.0 | 4.0 | 0.00 | 0.00 | 0.00 | 76 | 1007.6 |
| 20260505024759 | 58 | 142 | 1.0 | 4.0 | 0.00 | 0.00 | 0.00 | 76 | 1007.6 |
| 20260505024657 | 58 | 142 | 2.0 | 4.0 | 0.00 | 0.00 | 0.00 | 75 | 1007.5 |
| 20260505024558 | 58 | 109 | 1.0 | 2.0 | 0.00 | 0.00 | 0.00 | 75 | 1007.6 |
| 20260505024500 | 58 | 109 | 0.0 | 2.0 | 0.00 | 0.00 | 0.00 | 76 | 1007.6 |
| 20260505024358 | 58 | 109 | 0.0 | 2.0 | 0.00 | 0.00 | 0.00 | 76 | 1007.5 |
| 20260505024258 | 58 | 109 | 0.0 | 2.0 | 0.00 | 0.00 | 0.00 | 76 | 1007.5 |
| 20260505024158 | 58 | 109 | 0.0 | 2.0 | 0.00 | 0.00 | 0.00 | 76 | 1007.5 |
| 20260505024058 | 57 | 109 | 1.0 | 2.0 | 0.00 | 0.00 | 0.00 | 76 | 1007.4 |
| 20260505023858 | 57 | 109 | 2.0 | 2.0 | 0.00 | 0.00 | 0.00 | 76 | 1007.4 |
| 20260505023758 | 57 | 109 | 0.0 | 2.0 | 0.00 | 0.00 | 0.00 | 76 | 1007.4 |
| 20260505023659 | 57 | 109 | 0.0 | 0.0 | 0.00 | 0.00 | 0.00 | 77 | 1007.4 |
| 20260505023558 | 57 | 109 | 0.0 | 0.0 | 0.00 | 0.00 | 0.00 | 77 | 1007.4 |
| 20260505023500 | 57 | 109 | 0.0 | 0.0 | 0.00 | 0.00 | 0.00 | 77 | 1007.3 |
| 20260505023358 | 57 | 109 | 0.0 | 0.0 | 0.00 | 0.00 | 0.00 | 77 | 1007.3 |
| 20260505023158 | 57 | 109 | 0.0 | 2.0 | 0.00 | 0.00 | 0.00 | 77 | 1007.3 |
| 20260505023059 | 57 | 109 | 0.0 | 2.0 | 0.00 | 0.00 | 0.00 | 77 | 1007.3 |
| 20260505022857 | 57 | 109 | 0.0 | 3.0 | 0.00 | 0.00 | 0.00 | 77 | 1007.4 |
| 20260505022758 | 57 | 109 | 0.0 | 3.0 | 0.00 | 0.00 | 0.00 | 77 | 1007.3 |
| 20260505022558 | 57 | 109 | 0.0 | 3.0 | 0.00 | 0.00 | 0.00 | 77 | 1007.4 |
| 20260505022500 | 57 | 109 | 0.0 | 3.0 | 0.00 | 0.00 | 0.00 | 77 | 1007.3 |
| 20260505022359 | 57 | 109 | 0.0 | 3.0 | 0.00 | 0.00 | 0.00 | 76 | 1007.3 |
| 20260505022258 | 57 | 109 | 2.0 | 3.0 | 0.00 | 0.00 | 0.00 | 77 | 1007.3 |
| 20260505022158 | 58 | 109 | 0.0 | 3.0 | 0.00 | 0.00 | 0.00 | 76 | 1007.3 |
| 20260505022058 | 58 | 109 | 0.0 | 3.0 | 0.00 | 0.00 | 0.00 | 76 | 1007.2 |
| 20260505022000 | 58 | 109 | 2.0 | 3.0 | 0.00 | 0.00 | 0.00 | 76 | 1007.3 |
| 20260505021758 | 58 | 109 | 0.0 | 3.0 | 0.00 | 0.00 | 0.00 | 76 | 1007.3 |
| 20260505021557 | 58 | 109 | 1.0 | 3.0 | 0.00 | 0.00 | 0.00 | 75 | 1007.3 |
| 20260505021459 | 58 | 109 | 0.0 | 3.0 | 0.00 | 0.00 | 0.00 | 75 | 1007.3 |
| 20260505021259 | 58 | 109 | 0.0 | 3.0 | 0.00 | 0.00 | 0.00 | 75 | 1007.3 |
| 20260505021158 | 58 | 109 | 0.0 | 2.0 | 0.00 | 0.00 | 0.00 | 75 | 1007.3 |
| 20260505021059 | 58 | 109 | 0.0 | 2.0 | 0.00 | 0.00 | 0.00 | 75 | 1007.4 |
| 20260505020857 | 58 | 109 | 0.0 | 2.0 | 0.00 | 0.00 | 0.00 | 75 | 1007.4 |
| 20260505020758 | 58 | 109 | 0.0 | 2.0 | 0.00 | 0.00 | 0.00 | 75 | 1007.4 |
| 20260505020658 | 58 | 109 | 0.0 | 2.0 | 0.00 | 0.00 | 0.00 | 75 | 1007.3 |
| 20260505020459 | 58 | 109 | 0.0 | 3.0 | 0.00 | 0.00 | 0.00 | 75 | 1007.3 |
| 20260505020358 | 58 | 109 | 2.0 | 3.0 | 0.00 | 0.00 | 0.00 | 75 | 1007.3 |
| 20260505020159 | 58 | 109 | 0.0 | 3.0 | 0.00 | 0.00 | 0.00 | 75 | 1007.3 |
| 20260505020059 | 58 | 109 | 0.0 | 3.0 | 0.00 | 0.00 | 0.00 | 75 | 1007.3 |
| 20260505020000 | 58 | 109 | 0.0 | 3.0 | 0.00 | 0.00 | 0.00 | 75 | 1007.3 |
| 20260505015859 | 58 | 109 | 0.0 | 3.0 | 0.00 | 0.00 | 0.00 | 75 | 1007.3 |
| 20260505015759 | 58 | 109 | 0.0 | 3.0 | 0.00 | 0.00 | 0.00 | 75 | 1007.3 |
| 20260505015658 | 58 | 109 | 1.0 | 3.0 | 0.00 | 0.00 | 0.00 | 75 | 1007.3 |
| 20260505015559 | 58 | 109 | 2.0 | 2.0 | 0.00 | 0.00 | 0.00 | 75 | 1007.4 |
| 20260505015500 | 59 | 109 | 0.0 | 2.0 | 0.00 | 0.00 | 0.00 | 75 | 1007.4 |
| 20260505015359 | 59 | 109 | 0.0 | 2.0 | 0.00 | 0.00 | 0.00 | 74 | 1007.4 |
| 20260505015259 | 59 | 109 | 0.0 | 2.0 | 0.00 | 0.00 | 0.00 | 74 | 1007.3 |
| 20260505015158 | 59 | 109 | 0.0 | 2.0 | 0.00 | 0.00 | 0.00 | 74 | 1007.3 |
| 20260505015100 | 59 | 109 | 0.0 | 2.0 | 0.00 | 0.00 | 0.00 | 74 | 1007.3 |
| 20260505015001 | 59 | 109 | 0.0 | 2.0 | 0.00 | 0.00 | 0.00 | 74 | 1007.3 |
| 20260505014858 | 59 | 109 | 0.0 | 2.0 | 0.00 | 0.00 | 0.00 | 73 | 1007.4 |
| 20260505014601 | 59 | 109 | 0.0 | 3.0 | 0.00 | 0.00 | 0.00 | 73 | 1007.3 |
| 20260505014501 | 59 | 109 | 0.0 | 3.0 | 0.00 | 0.00 | 0.00 | 73 | 1007.4 |
| 20260505014359 | 59 | 109 | 0.0 | 3.0 | 0.00 | 0.00 | 0.00 | 73 | 1007.4 |
| 20260505014258 | 59 | 109 | 0.0 | 3.0 | 0.00 | 0.00 | 0.00 | 73 | 1007.4 |
| 20260505014200 | 59 | 109 | 0.0 | 3.0 | 0.00 | 0.00 | 0.00 | 73 | 1007.3 |
| 20260505014058 | 59 | 109 | 0.0 | 3.0 | 0.00 | 0.00 | 0.00 | 73 | 1007.3 |
| 20260505014000 | 59 | 109 | 0.0 | 3.0 | 0.00 | 0.00 | 0.00 | 73 | 1007.3 |
| 20260505013900 | 59 | 109 | 1.0 | 3.0 | 0.00 | 0.00 | 0.00 | 72 | 1007.3 |
| 20260505013800 | 59 | 109 | 0.0 | 2.0 | 0.00 | 0.00 | 0.00 | 72 | 1007.3 |
| 20260505013659 | 59 | 109 | 0.0 | 2.0 | 0.00 | 0.00 | 0.00 | 72 | 1007.3 |
| 20260505013600 | 59 | 109 | 0.0 | 2.0 | 0.00 | 0.00 | 0.00 | 72 | 1007.3 |
| 20260505013504 | 59 | 109 | 1.0 | 2.0 | 0.00 | 0.00 | 0.00 | 72 | 1007.2 |
| 20260505013258 | 59 | 109 | 0.0 | 2.0 | 0.00 | 0.00 | 0.00 | 72 | 1007.2 |
| 20260505013058 | 60 | 109 | 0.0 | 2.0 | 0.00 | 0.00 | 0.00 | 72 | 1007.1 |
| 20260505013000 | 60 | 109 | 0.0 | 2.0 | 0.00 | 0.00 | 0.00 | 71 | 1007.2 |
| 20260505012858 | 60 | 109 | 1.0 | 2.0 | 0.00 | 0.00 | 0.00 | 71 | 1007.1 |
| 20260505012759 | 60 | 109 | 0.0 | 2.0 | 0.00 | 0.00 | 0.00 | 71 | 1007.2 |
| 20260505012700 | 60 | 109 | 1.0 | 2.0 | 0.00 | 0.00 | 0.00 | 71 | 1007.2 |
| 20260505012559 | 60 | 109 | 0.0 | 2.0 | 0.00 | 0.00 | 0.00 | 71 | 1007.2 |
| 20260505012504 | 60 | 109 | 0.0 | 2.0 | 0.00 | 0.00 | 0.00 | 71 | 1007.2 |
| 20260505012359 | 60 | 109 | 0.0 | 2.0 | 0.00 | 0.00 | 0.00 | 70 | 1007.2 |
| 20260505012259 | 61 | 109 | 1.0 | 2.0 | 0.00 | 0.00 | 0.00 | 70 | 1007.3 |
| 20260505012158 | 61 | 109 | 0.0 | 2.0 | 0.00 | 0.00 | 0.00 | 70 | 1007.3 |
| 20260505012100 | 61 | 109 | 0.0 | 2.0 | 0.00 | 0.00 | 0.00 | 70 | 1007.3 |
| 20260505012002 | 61 | 109 | 0.0 | 2.0 | 0.00 | 0.00 | 0.00 | 69 | 1007.3 |
| 20260505011859 | 61 | 109 | 0.0 | 2.0 | 0.00 | 0.00 | 0.00 | 69 | 1007.3 |
| 20260505011800 | 61 | 109 | 0.0 | 2.0 | 0.00 | 0.00 | 0.00 | 69 | 1007.3 |
| 20260505011700 | 61 | 109 | 0.0 | 2.0 | 0.00 | 0.00 | 0.00 | 69 | 1007.3 |
| 20260505011559 | 61 | 109 | 0.0 | 2.0 | 0.00 | 0.00 | 0.00 | 69 | 1007.3 |
| 20260505011503 | 61 | 109 | 1.0 | 2.0 | 0.00 | 0.00 | 0.00 | 68 | 1007.2 |
| 20260505011400 | 61 | 109 | 1.0 | 2.0 | 0.00 | 0.00 | 0.00 | 68 | 1007.3 |
| 20260505011259 | 61 | 109 | 1.0 | 2.0 | 0.00 | 0.00 | 0.00 | 68 | 1007.2 |
| 20260505011158 | 62 | 109 | 2.0 | 2.0 | 0.00 | 0.00 | 0.00 | 68 | 1007.2 |
| 20260505011100 | 62 | 109 | 1.0 | 2.0 | 0.00 | 0.00 | 0.00 | 68 | 1007.2 |
| 20260505011002 | 62 | 109 | 0.0 | 2.0 | 0.00 | 0.00 | 0.00 | 68 | 1007.2 |
| 20260505010859 | 62 | 109 | 1.0 | 2.0 | 0.00 | 0.00 | 0.00 | 68 | 1007.2 |
| 20260505010801 | 62 | 109 | 2.0 | 2.0 | 0.00 | 0.00 | 0.00 | 67 | 1007.2 |
| 20260505010659 | 62 | 109 | 1.0 | 2.0 | 0.00 | 0.00 | 0.00 | 67 | 1007.2 |
| 20260505010600 | 62 | 109 | 1.0 | 2.0 | 0.00 | 0.00 | 0.00 | 66 | 1007.1 |
| 20260505010502 | 62 | 109 | 0.0 | 2.0 | 0.00 | 0.00 | 0.00 | 66 | 1007.1 |
| 20260505010400 | 62 | 109 | 0.0 | 2.0 | 0.00 | 0.00 | 0.00 | 66 | 1007.1 |
| 20260505010301 | 62 | 109 | 0.0 | 3.0 | 0.00 | 0.00 | 0.00 | 66 | 1007.1 |
| 20260505010200 | 63 | 109 | 1.0 | 3.0 | 0.00 | 0.00 | 0.00 | 66 | 1007.1 |
| 20260505010100 | 63 | 109 | 0.0 | 3.0 | 0.00 | 0.00 | 0.00 | 66 | 1007.0 |
| 20260505005858 | 63 | 109 | 2.0 | 3.0 | 0.00 | 0.00 | 0.00 | 65 | 1007.0 |
| 20260505005758 | 63 | 109 | 1.0 | 3.0 | 0.00 | 0.00 | 0.00 | 64 | 1007.0 |
| 20260505005558 | 63 | 109 | 1.0 | 3.0 | 0.00 | 0.00 | 0.00 | 64 | 1006.9 |
| 20260505005501 | 63 | 109 | 1.0 | 3.0 | 0.00 | 0.00 | 0.00 | 64 | 1006.9 |
| 20260505005259 | 64 | 109 | 1.0 | 3.0 | 0.00 | 0.00 | 0.00 | 63 | 1006.9 |
| 20260505005159 | 64 | 109 | 1.0 | 3.0 | 0.00 | 0.00 | 0.00 | 63 | 1006.9 |
| 20260505005059 | 64 | 109 | 1.0 | 3.0 | 0.00 | 0.00 | 0.00 | 63 | 1006.9 |
| 20260505004858 | 64 | 109 | 0.0 | 2.0 | 0.00 | 0.00 | 0.00 | 63 | 1006.9 |
| 20260505004758 | 64 | 109 | 1.0 | 2.0 | 0.00 | 0.00 | 0.00 | 63 | 1006.9 |
| 20260505004658 | 64 | 109 | 0.0 | 2.0 | 0.00 | 0.00 | 0.00 | 62 | 1006.8 |
| 20260505004558 | 64 | 109 | 0.0 | 2.0 | 0.00 | 0.00 | 0.00 | 62 | 1006.8 |
| 20260505004500 | 65 | 109 | 0.0 | 2.0 | 0.00 | 0.00 | 0.00 | 62 | 1006.8 |
| 20260505004258 | 65 | 109 | 1.0 | 2.0 | 0.00 | 0.00 | 0.00 | 61 | 1006.7 |
| 20260505004159 | 65 | 109 | 1.0 | 2.0 | 0.00 | 0.00 | 0.00 | 61 | 1006.8 |
| 20260505003858 | 65 | 109 | 1.0 | 2.0 | 0.00 | 0.00 | 0.00 | 60 | 1006.7 |
| 20260505003758 | 66 | 109 | 1.0 | 2.0 | 0.00 | 0.00 | 0.00 | 60 | 1006.7 |
| 20260505003701 | 66 | 109 | 1.0 | 2.0 | 0.00 | 0.00 | 0.00 | 60 | 1006.7 |
| 20260505003500 | 66 | 109 | 0.0 | 3.0 | 0.00 | 0.00 | 0.00 | 60 | 1006.6 |
| 20260505003359 | 66 | 109 | 0.0 | 3.0 | 0.00 | 0.00 | 0.00 | 59 | 1006.7 |
| 20260505003158 | 67 | 109 | 1.0 | 3.0 | 0.00 | 0.00 | 0.00 | 59 | 1006.7 |
| 20260505003058 | 67 | 109 | 0.0 | 3.0 | 0.00 | 0.00 | 0.00 | 58 | 1006.7 |
| 20260505003000 | 67 | 109 | 1.0 | 3.0 | 0.00 | 0.00 | 0.00 | 57 | 1006.7 |
| 20260505002859 | 67 | 109 | 1.0 | 3.0 | 0.00 | 0.00 | 0.00 | 57 | 1006.7 |
| 20260505002757 | 67 | 109 | 0.0 | 3.0 | 0.00 | 0.00 | 0.00 | 57 | 1006.7 |
| 20260505002659 | 67 | 109 | 0.0 | 3.0 | 0.00 | 0.00 | 0.00 | 57 | 1006.7 |
| 20260505002557 | 67 | 180 | 2.0 | 2.0 | 0.00 | 0.00 | 0.00 | 58 | 1006.7 |
| 20260505002459 | 67 | 180 | 1.0 | 2.0 | 0.00 | 0.00 | 0.00 | 58 | 1006.7 |
| 20260505002258 | 68 | 180 | 1.0 | 2.0 | 0.00 | 0.00 | 0.00 | 55 | 1006.6 |
| 20260505002159 | 68 | 180 | 2.0 | 2.0 | 0.00 | 0.00 | 0.00 | 55 | 1006.6 |
| 20260505002059 | 68 | 180 | 0.0 | 2.0 | 0.00 | 0.00 | 0.00 | 55 | 1006.6 |
| 20260505001959 | 68 | 180 | 0.0 | 2.0 | 0.00 | 0.00 | 0.00 | 55 | 1006.6 |